Time,TemperatureF,DewpointF,PressureIn,WindDirection,WindDirectionDegrees,WindSpeedMPH,WindSpeedGustMPH,Humidity,HourlyPrecipIn,Conditions,Clouds,dailyrainin,SoftwareType,DateUTC
2013-02-08 00:02:00,52.0,46.0,29.94,SSW,194,0.0,0.0,80,0.00,,,0.00,VWS V14.01,2013-02-08 08:02:00,
2013-02-08 00:03:00,52.0,46.0,29.94,SSW,194,1.0,1.0,80,0.00,,,0.00,VWS V14.01,2013-02-08 08:03:00,
2013-02-08 00:04:00,52.0,46.0,29.95,SSW,194,0.0,1.0,80,0.00,,,0.00,VWS V14.01,2013-02-08 08:04:00,
2013-02-08 00:08:00,52.0,46.0,29.94,South,188,0.0,1.0,80,0.00,,,0.00,VWS V14.01,2013-02-08 08:08:00,
2013-02-08 00:09:00,52.0,46.0,29.94,SW,222,1.0,2.0,80,0.00,,,0.00,VWS V14.01,2013-02-08 08:09:00,
2013-02-08 00:10:00,52.0,45.7,29.94,SW,224,0.0,1.0,79,0.00,,,0.00,VWS V14.01,2013-02-08 08:10:00,
2013-02-08 00:14:00,52.0,45.7,29.94,SW,224,0.0,0.0,79,0.00,,,0.00,VWS V14.01,2013-02-08 08:14:00,
2013-02-08 00:17:00,52.0,45.7,29.94,SW,222,0.0,0.0,79,0.00,,,0.00,VWS V14.01,2013-02-08 08:17:00,
2013-02-08 00:18:00,52.0,45.7,29.94,South,186,1.0,1.0,79,0.00,,,0.00,VWS V14.01,2013-02-08 08:18:00,
2013-02-08 00:19:00,52.0,45.7,29.94,South,186,0.0,1.0,79,0.00,,,0.00,VWS V14.01,2013-02-08 08:19:00,
2013-02-08 00:20:00,52.0,46.0,29.94,South,186,0.0,0.0,80,0.00,,,0.00,VWS V14.01,2013-02-08 08:20:00,
2013-02-08 00:24:00,52.0,46.0,29.94,South,186,0.0,0.0,80,0.00,,,0.00,VWS V14.01,2013-02-08 08:24:00,
2013-02-08 00:25:00,52.0,46.0,29.94,South,186,0.0,0.0,80,0.00,,,0.00,VWS V14.01,2013-02-08 08:25:00,
2013-02-08 00:27:00,51.9,45.9,29.94,South,186,0.0,1.0,80,0.00,,,0.00,VWS V14.01,2013-02-08 08:27:00,
2013-02-08 00:30:00,51.9,45.9,29.94,SE,131,0.0,0.0,80,0.00,,,0.00,VWS V14.01,2013-02-08 08:30:00,
2013-02-08 00:31:00,52.0,46.0,29.94,SE,133,0.0,1.0,80,0.00,,,0.00,VWS V14.01,2013-02-08 08:31:00,
2013-02-08 00:33:00,52.0,46.4,29.94,SSW,210,1.0,1.0,81,0.00,,,0.00,VWS V14.01,2013-02-08 08:33:00,
2013-02-08 00:36:00,52.0,46.4,29.94,SW,229,1.0,2.0,81,0.00,,,0.00,VWS V14.01,2013-02-08 08:36:00,
2013-02-08 00:37:00,52.1,46.5,29.94,SW,214,1.0,1.0,81,0.00,,,0.00,VWS V14.01,2013-02-08 08:37:00,
2013-02-08 00:38:00,52.1,46.8,29.94,WSW,252,3.0,3.0,82,0.00,,,0.00,VWS V14.01,2013-02-08 08:38:00,
2013-02-08 00:42:00,52.1,47.1,29.94,West,272,3.0,4.0,83,0.02,,,0.02,VWS V14.01,2013-02-08 08:42:00,
2013-02-08 00:44:00,52.0,47.3,29.94,West,280,8.0,8.0,84,0.02,,,0.02,VWS V14.01,2013-02-08 08:44:00,
2013-02-08 00:45:00,51.9,47.5,29.94,West,264,5.0,5.0,85,0.02,,,0.02,VWS V14.01,2013-02-08 08:45:00,
2013-02-08 00:46:00,51.8,47.4,29.94,WSW,250,4.0,5.0,85,0.02,,,0.02,VWS V14.01,2013-02-08 08:46:00,
2013-02-08 00:49:00,51.6,47.6,29.94,WSW,244,2.0,2.0,86,0.02,,,0.02,VWS V14.01,2013-02-08 08:49:00,
2013-02-08 00:50:00,51.5,47.5,29.94,WNW,301,3.0,6.0,86,0.02,,,0.02,VWS V14.01,2013-02-08 08:50:00,
2013-02-08 00:52:00,51.4,47.4,29.94,West,269,4.0,4.0,86,0.02,,,0.02,VWS V14.01,2013-02-08 08:52:00,
2013-02-08 00:53:00,51.4,47.7,29.94,West,267,1.0,2.0,87,0.02,,,0.02,VWS V14.01,2013-02-08 08:53:00,
2013-02-08 00:55:00,51.3,47.6,29.94,West,262,3.0,3.0,87,0.02,,,0.02,VWS V14.01,2013-02-08 08:55:00,
2013-02-08 00:57:00,51.3,47.6,29.94,WSW,256,2.0,2.0,87,0.02,,,0.02,VWS V14.01,2013-02-08 08:57:00,
2013-02-08 01:01:00,51.2,47.8,29.94,SW,236,2.0,6.0,88,0.03,,,0.03,VWS V14.01,2013-02-08 09:01:00,
2013-02-08 01:02:00,51.2,47.8,29.94,WSW,242,2.0,3.0,88,0.03,,,0.03,VWS V14.01,2013-02-08 09:02:00,
2013-02-08 01:03:00,51.2,47.8,29.94,SSW,205,4.0,5.0,88,0.03,,,0.03,VWS V14.01,2013-02-08 09:03:00,
2013-02-08 01:06:00,51.2,47.8,29.94,WSW,242,8.0,8.0,88,0.03,,,0.03,VWS V14.01,2013-02-08 09:06:00,
2013-02-08 01:08:00,51.2,47.8,29.94,SW,224,3.0,6.0,88,0.03,,,0.03,VWS V14.01,2013-02-08 09:08:00,
2013-02-08 01:09:00,51.2,47.8,29.94,SW,231,2.0,3.0,88,0.03,,,0.03,VWS V14.01,2013-02-08 09:09:00,
2013-02-08 01:12:00,51.1,47.7,29.94,WSW,243,1.0,2.0,88,0.03,,,0.03,VWS V14.01,2013-02-08 09:12:00,
2013-02-08 01:14:00,51.1,47.7,29.94,West,269,3.0,4.0,88,0.03,,,0.03,VWS V14.01,2013-02-08 09:14:00,
2013-02-08 01:15:00,51.0,47.6,29.94,West,264,2.0,2.0,88,0.03,,,0.03,VWS V14.01,2013-02-08 09:15:00,
2013-02-08 01:19:00,50.9,47.5,29.94,West,280,0.0,1.0,88,0.03,,,0.03,VWS V14.01,2013-02-08 09:19:00,
2013-02-08 01:23:00,50.8,47.4,29.94,WSW,253,1.0,3.0,88,0.03,,,0.03,VWS V14.01,2013-02-08 09:23:00,
2013-02-08 01:24:00,50.8,47.4,29.94,West,262,0.0,1.0,88,0.03,,,0.03,VWS V14.01,2013-02-08 09:24:00,
2013-02-08 01:25:00,50.8,47.4,29.94,West,262,0.0,1.0,88,0.03,,,0.03,VWS V14.01,2013-02-08 09:25:00,
2013-02-08 01:28:00,50.7,47.3,29.94,West,262,0.0,0.0,88,0.03,,,0.03,VWS V14.01,2013-02-08 09:28:00,
2013-02-08 01:30:00,50.7,47.3,29.94,West,262,0.0,0.0,88,0.03,,,0.03,VWS V14.01,2013-02-08 09:30:00,
2013-02-08 01:35:00,50.6,47.5,29.94,West,262,0.0,0.0,89,0.03,,,0.03,VWS V14.01,2013-02-08 09:35:00,
2013-02-08 01:37:00,50.6,47.5,29.94,West,262,0.0,0.0,89,0.03,,,0.03,VWS V14.01,2013-02-08 09:37:00,
2013-02-08 01:40:00,50.5,47.4,29.94,West,262,0.0,1.0,89,0.02,,,0.03,VWS V14.01,2013-02-08 09:40:00,
2013-02-08 01:41:00,50.5,47.4,29.94,West,262,1.0,1.0,89,0.02,,,0.03,VWS V14.01,2013-02-08 09:41:00,
2013-02-08 01:44:00,50.4,47.3,29.94,SW,233,3.0,4.0,89,0.01,,,0.03,VWS V14.01,2013-02-08 09:44:00,
2013-02-08 01:46:00,50.4,47.0,29.94,West,262,4.0,8.0,88,0.01,,,0.03,VWS V14.01,2013-02-08 09:46:00,
2013-02-08 01:47:00,50.4,47.0,29.94,WSW,244,3.0,6.0,88,0.01,,,0.03,VWS V14.01,2013-02-08 09:47:00,
2013-02-08 01:50:00,50.6,46.9,29.94,WSW,250,3.0,3.0,87,0.01,,,0.03,VWS V14.01,2013-02-08 09:50:00,
2013-02-08 01:52:00,50.6,46.9,29.94,WSW,256,5.0,9.0,87,0.01,,,0.03,VWS V14.01,2013-02-08 09:52:00,
2013-02-08 01:53:00,50.7,47.0,29.94,West,271,3.0,5.0,87,0.01,,,0.03,VWS V14.01,2013-02-08 09:53:00,
2013-02-08 01:57:00,50.7,46.7,29.94,West,263,4.0,7.0,86,0.01,,,0.03,VWS V14.01,2013-02-08 09:57:00,
2013-02-08 02:00:00,50.7,46.4,29.94,WSW,248,5.0,6.0,85,0.00,,,0.03,VWS V14.01,2013-02-08 10:00:00,
2013-02-08 02:01:00,50.7,46.4,29.94,West,271,2.0,6.0,85,0.00,,,0.03,VWS V14.01,2013-02-08 10:01:00,
2013-02-08 02:03:00,50.6,46.3,29.94,West,280,3.0,5.0,85,0.00,,,0.03,VWS V14.01,2013-02-08 10:03:00,
2013-02-08 02:04:00,50.6,46.3,29.94,WSW,256,3.0,4.0,85,0.00,,,0.03,VWS V14.01,2013-02-08 10:04:00,
2013-02-08 02:05:00,50.6,46.3,29.94,WNW,295,3.0,4.0,85,0.00,,,0.03,VWS V14.01,2013-02-08 10:05:00,
2013-02-08 02:06:00,50.6,46.3,29.94,West,264,5.0,7.0,85,0.00,,,0.03,VWS V14.01,2013-02-08 10:06:00,
2013-02-08 02:08:00,50.5,45.8,29.94,West,263,6.0,9.0,84,0.00,,,0.03,VWS V14.01,2013-02-08 10:08:00,
2013-02-08 02:09:00,50.5,45.8,29.94,WSW,255,10.0,10.0,84,0.00,,,0.03,VWS V14.01,2013-02-08 10:09:00,
2013-02-08 02:13:00,50.4,45.4,29.93,West,270,2.0,5.0,83,0.00,,,0.03,VWS V14.01,2013-02-08 10:13:00,
2013-02-08 02:14:00,50.4,45.4,29.94,WSW,255,3.0,3.0,83,0.00,,,0.03,VWS V14.01,2013-02-08 10:14:00,
2013-02-08 02:15:00,50.4,45.4,29.94,West,266,2.0,4.0,83,0.00,,,0.03,VWS V14.01,2013-02-08 10:15:00,
2013-02-08 02:18:00,50.3,45.0,29.93,West,275,3.0,5.0,82,0.00,,,0.03,VWS V14.01,2013-02-08 10:18:00,
2013-02-08 02:23:00,50.1,44.8,29.93,West,267,1.0,8.0,82,0.00,,,0.03,VWS V14.01,2013-02-08 10:23:00,
2013-02-08 02:25:00,50.0,44.4,29.93,WNW,288,4.0,6.0,81,0.00,,,0.03,VWS V14.01,2013-02-08 10:25:00,
2013-02-08 02:26:00,50.0,44.4,29.93,West,272,3.0,6.0,81,0.00,,,0.03,VWS V14.01,2013-02-08 10:26:00,
2013-02-08 02:29:00,49.9,44.3,29.93,WSW,245,2.0,3.0,81,0.00,,,0.03,VWS V14.01,2013-02-08 10:29:00,
2013-02-08 02:30:00,49.9,44.3,29.93,West,259,1.0,2.0,81,0.00,,,0.03,VWS V14.01,2013-02-08 10:30:00,
2013-02-08 02:31:00,49.9,44.3,29.93,WSW,255,3.0,3.0,81,0.00,,,0.03,VWS V14.01,2013-02-08 10:31:00,
2013-02-08 02:34:00,49.9,44.3,29.93,WSW,253,1.0,2.0,81,0.00,,,0.03,VWS V14.01,2013-02-08 10:34:00,
2013-02-08 02:35:00,49.8,43.9,29.93,WNW,298,3.0,3.0,80,0.00,,,0.03,VWS V14.01,2013-02-08 10:35:00,
2013-02-08 02:39:00,49.8,43.9,29.93,West,269,0.0,1.0,80,0.00,,,0.03,VWS V14.01,2013-02-08 10:39:00,
2013-02-08 02:40:00,49.7,43.8,29.93,West,269,0.0,0.0,80,0.00,,,0.03,VWS V14.01,2013-02-08 10:40:00,
2013-02-08 02:42:00,49.6,43.7,29.93,West,269,0.0,1.0,80,0.00,,,0.03,VWS V14.01,2013-02-08 10:42:00,
2013-02-08 02:45:00,49.5,43.6,29.93,West,262,1.0,1.0,80,0.00,,,0.03,VWS V14.01,2013-02-08 10:45:00,
2013-02-08 02:46:00,49.5,43.6,29.93,West,263,0.0,1.0,80,0.00,,,0.03,VWS V14.01,2013-02-08 10:46:00,
2013-02-08 02:49:00,49.3,43.4,29.93,West,263,0.0,0.0,80,0.00,,,0.03,VWS V14.01,2013-02-08 10:49:00,
2013-02-08 02:50:00,49.3,43.4,29.93,West,262,0.0,0.0,80,0.00,,,0.03,VWS V14.01,2013-02-08 10:50:00,
2013-02-08 02:51:00,49.2,43.3,29.93,West,263,0.0,0.0,80,0.00,,,0.03,VWS V14.01,2013-02-08 10:51:00,
2013-02-08 02:54:00,49.1,43.5,29.93,West,262,0.0,0.0,81,0.00,,,0.03,VWS V14.01,2013-02-08 10:54:00,
2013-02-08 02:55:00,49.1,43.5,29.93,West,263,0.0,0.0,81,0.00,,,0.03,VWS V14.01,2013-02-08 10:55:00,
2013-02-08 02:57:00,49.0,43.4,29.93,WSW,257,0.0,1.0,81,0.00,,,0.03,VWS V14.01,2013-02-08 10:57:00,
2013-02-08 03:00:00,49.0,43.8,29.93,WSW,257,1.0,1.0,82,0.00,,,0.03,VWS V14.01,2013-02-08 11:00:00,
2013-02-08 03:01:00,49.0,43.8,29.93,WSW,257,1.0,1.0,82,0.00,,,0.03,VWS V14.01,2013-02-08 11:01:00,
2013-02-08 03:02:00,49.0,43.8,29.93,WSW,249,1.0,4.0,82,0.00,,,0.03,VWS V14.01,2013-02-08 11:02:00,
2013-02-08 03:06:00,49.0,43.8,29.93,WSW,249,1.0,1.0,82,0.00,,,0.03,VWS V14.01,2013-02-08 11:06:00,
2013-02-08 03:08:00,48.9,44.0,29.93,WSW,249,0.0,1.0,83,0.00,,,0.03,VWS V14.01,2013-02-08 11:08:00,
2013-02-08 03:09:00,48.9,44.0,29.93,West,264,1.0,2.0,83,0.00,,,0.03,VWS V14.01,2013-02-08 11:09:00,
2013-02-08 03:11:00,48.9,43.7,29.93,WSW,255,2.0,2.0,82,0.00,,,0.03,VWS V14.01,2013-02-08 11:11:00,
2013-02-08 03:12:00,48.8,43.6,29.93,West,260,2.0,3.0,82,0.00,,,0.03,VWS V14.01,2013-02-08 11:12:00,
2013-02-08 03:14:00,48.8,43.6,29.93,West,260,1.0,1.0,82,0.00,,,0.03,VWS V14.01,2013-02-08 11:14:00,
2013-02-08 03:17:00,48.7,43.8,29.92,WSW,249,2.0,2.0,83,0.00,,,0.03,VWS V14.01,2013-02-08 11:17:00,
2013-02-08 03:20:00,48.6,43.7,29.92,SW,231,1.0,1.0,83,0.00,,,0.03,VWS V14.01,2013-02-08 11:20:00,
2013-02-08 03:22:00,48.6,43.7,29.92,SW,233,1.0,2.0,83,0.00,,,0.03,VWS V14.01,2013-02-08 11:22:00,
2013-02-08 03:23:00,48.6,43.7,29.93,SW,234,0.0,1.0,83,0.00,,,0.03,VWS V14.01,2013-02-08 11:23:00,
2013-02-08 03:26:00,48.5,43.6,29.93,SW,233,0.0,0.0,83,0.00,,,0.03,VWS V14.01,2013-02-08 11:26:00,
2013-02-08 03:29:00,48.4,43.2,29.92,West,272,1.0,1.0,82,0.00,,,0.03,VWS V14.01,2013-02-08 11:29:00,
2013-02-08 03:31:00,48.3,43.1,29.92,WSW,239,0.0,1.0,82,0.00,,,0.03,VWS V14.01,2013-02-08 11:31:00,
2013-02-08 03:32:00,48.3,43.1,29.92,WSW,239,0.0,0.0,82,0.00,,,0.03,VWS V14.01,2013-02-08 11:32:00,
2013-02-08 03:35:00,48.2,43.0,29.92,WSW,243,0.0,0.0,82,0.00,,,0.03,VWS V14.01,2013-02-08 11:35:00,
2013-02-08 03:38:00,48.1,43.2,29.92,WSW,243,0.0,0.0,83,0.00,,,0.03,VWS V14.01,2013-02-08 11:38:00,
2013-02-08 03:39:00,48.1,43.2,29.92,WSW,245,1.0,1.0,83,0.00,,,0.03,VWS V14.01,2013-02-08 11:39:00,
2013-02-08 03:41:00,48.0,43.1,29.92,WSW,243,0.0,0.0,83,0.00,,,0.03,VWS V14.01,2013-02-08 11:41:00,
2013-02-08 03:43:00,47.9,43.0,29.92,West,278,1.0,1.0,83,0.00,,,0.03,VWS V14.01,2013-02-08 11:43:00,
2013-02-08 03:46:00,47.8,42.9,29.92,West,264,2.0,3.0,83,0.00,,,0.03,VWS V14.01,2013-02-08 11:46:00,
2013-02-08 03:48:00,47.9,42.7,29.92,West,269,1.0,1.0,82,0.00,,,0.03,VWS V14.01,2013-02-08 11:48:00,
2013-02-08 03:50:00,47.9,42.7,29.92,WSW,248,1.0,1.0,82,0.00,,,0.03,VWS V14.01,2013-02-08 11:50:00,
2013-02-08 03:53:00,47.9,42.7,29.92,West,260,0.0,1.0,82,0.00,,,0.03,VWS V14.01,2013-02-08 11:53:00,
2013-02-08 03:54:00,47.9,42.7,29.92,West,260,0.0,0.0,82,0.00,,,0.03,VWS V14.01,2013-02-08 11:54:00,
2013-02-08 03:55:00,47.9,42.7,29.92,West,263,2.0,2.0,82,0.00,,,0.03,VWS V14.01,2013-02-08 11:55:00,
2013-02-08 03:58:00,48.0,42.8,29.92,West,276,2.0,2.0,82,0.00,,,0.03,VWS V14.01,2013-02-08 11:58:00,
2013-02-08 04:00:00,48.0,43.1,29.92,WSW,255,0.0,1.0,83,0.00,,,0.03,VWS V14.01,2013-02-08 12:00:00,
2013-02-08 04:02:00,48.1,43.2,29.92,WSW,255,0.0,1.0,83,0.00,,,0.03,VWS V14.01,2013-02-08 12:02:00,
2013-02-08 04:03:00,48.1,43.2,29.92,WSW,256,0.0,0.0,83,0.00,,,0.03,VWS V14.01,2013-02-08 12:03:00,
2013-02-08 04:04:00,48.1,43.2,29.92,WSW,256,0.0,0.0,83,0.00,,,0.03,VWS V14.01,2013-02-08 12:04:00,
2013-02-08 04:08:00,48.0,43.1,29.92,WSW,255,0.0,0.0,83,0.00,,,0.03,VWS V14.01,2013-02-08 12:08:00,
2013-02-08 04:09:00,48.0,43.1,29.92,WSW,255,0.0,0.0,83,0.00,,,0.03,VWS V14.01,2013-02-08 12:09:00,
2013-02-08 04:10:00,47.9,43.0,29.92,WSW,256,0.0,1.0,83,0.00,,,0.03,VWS V14.01,2013-02-08 12:10:00,
2013-02-08 04:13:00,47.9,43.0,29.92,WSW,256,0.0,0.0,83,0.00,,,0.03,VWS V14.01,2013-02-08 12:13:00,
2013-02-08 04:15:00,47.7,42.8,29.92,WSW,254,1.0,1.0,83,0.00,,,0.03,VWS V14.01,2013-02-08 12:15:00,
2013-02-08 04:16:00,47.7,42.8,29.92,WSW,255,0.0,1.0,83,0.00,,,0.03,VWS V14.01,2013-02-08 12:16:00,
2013-02-08 04:17:00,47.7,42.8,29.92,WSW,250,1.0,2.0,83,0.00,,,0.03,VWS V14.01,2013-02-08 12:17:00,
2013-02-08 04:19:00,47.7,42.5,29.92,NW,314,1.0,1.0,82,0.00,,,0.03,VWS V14.01,2013-02-08 12:19:00,
2013-02-08 04:21:00,47.6,42.4,29.92,NW,313,0.0,0.0,82,0.00,,,0.03,VWS V14.01,2013-02-08 12:21:00,
2013-02-08 04:22:00,47.6,42.4,29.92,NW,314,0.0,0.0,82,0.00,,,0.03,VWS V14.01,2013-02-08 12:22:00,
2013-02-08 04:26:00,47.5,42.6,29.92,NW,314,0.0,0.0,83,0.00,,,0.03,VWS V14.01,2013-02-08 12:26:00,
2013-02-08 04:27:00,47.5,42.6,29.92,NW,314,0.0,0.0,83,0.00,,,0.03,VWS V14.01,2013-02-08 12:27:00,
2013-02-08 04:28:00,47.5,42.6,29.92,NW,314,0.0,0.0,83,0.00,,,0.03,VWS V14.01,2013-02-08 12:28:00,
2013-02-08 04:31:00,47.5,42.6,29.92,NNE,27,1.0,1.0,83,0.00,,,0.03,VWS V14.01,2013-02-08 12:31:00,
2013-02-08 04:33:00,47.4,42.8,29.92,East,86,2.0,2.0,84,0.00,,,0.03,VWS V14.01,2013-02-08 12:33:00,
2013-02-08 04:34:00,47.3,42.7,29.92,SE,124,1.0,1.0,84,0.00,,,0.03,VWS V14.01,2013-02-08 12:34:00,
2013-02-08 04:36:00,47.2,42.6,29.92,SE,124,0.0,0.0,84,0.00,,,0.03,VWS V14.01,2013-02-08 12:36:00,
2013-02-08 04:40:00,47.0,42.7,29.92,East,94,0.0,0.0,85,0.00,,,0.03,VWS V14.01,2013-02-08 12:40:00,
2013-02-08 04:41:00,46.9,42.6,29.92,East,94,0.0,0.0,85,0.00,,,0.03,VWS V14.01,2013-02-08 12:41:00,
2013-02-08 04:46:00,46.8,42.2,29.92,East,95,0.0,0.0,84,0.00,,,0.03,VWS V14.01,2013-02-08 12:46:00,
2013-02-08 04:47:00,46.7,42.1,29.92,East,94,1.0,1.0,84,0.00,,,0.03,VWS V14.01,2013-02-08 12:47:00,
2013-02-08 04:51:00,46.7,42.1,29.92,East,98,0.0,0.0,84,0.00,,,0.03,VWS V14.01,2013-02-08 12:51:00,
2013-02-08 04:52:00,46.6,42.0,29.92,East,98,0.0,0.0,84,0.00,,,0.03,VWS V14.01,2013-02-08 12:52:00,
2013-02-08 04:53:00,46.6,42.0,29.93,East,97,0.0,1.0,84,0.00,,,0.03,VWS V14.01,2013-02-08 12:53:00,
2013-02-08 04:58:00,46.5,41.9,29.93,ESE,120,0.0,1.0,84,0.00,,,0.03,VWS V14.01,2013-02-08 12:58:00,
2013-02-08 04:59:00,46.5,41.9,29.93,SW,218,0.0,1.0,84,0.00,,,0.03,VWS V14.01,2013-02-08 12:59:00,
2013-02-08 05:03:00,46.4,41.8,29.93,SW,217,0.0,0.0,84,0.00,,,0.03,VWS V14.01,2013-02-08 13:03:00,
2013-02-08 05:06:00,46.3,41.7,29.93,SW,217,0.0,0.0,84,0.00,,,0.03,VWS V14.01,2013-02-08 13:06:00,
2013-02-08 05:09:00,46.2,41.3,29.93,SW,217,0.0,0.0,83,0.00,,,0.03,VWS V14.01,2013-02-08 13:09:00,
2013-02-08 05:10:00,46.1,41.2,29.93,SW,217,0.0,0.0,83,0.00,,,0.03,VWS V14.01,2013-02-08 13:10:00,
2013-02-08 05:11:00,46.1,41.2,29.93,SW,218,1.0,1.0,83,0.00,,,0.03,VWS V14.01,2013-02-08 13:11:00,
2013-02-08 05:14:00,46.1,41.2,29.93,WSW,254,0.0,1.0,83,0.00,,,0.03,VWS V14.01,2013-02-08 13:14:00,
2013-02-08 05:15:00,46.1,41.2,29.93,WSW,255,1.0,1.0,83,0.00,,,0.03,VWS V14.01,2013-02-08 13:15:00,
2013-02-08 05:19:00,46.1,40.9,29.93,West,274,0.0,0.0,82,0.00,,,0.03,VWS V14.01,2013-02-08 13:19:00,
2013-02-08 05:20:00,46.1,40.9,29.93,SW,233,0.0,0.0,82,0.00,,,0.03,VWS V14.01,2013-02-08 13:20:00,
2013-02-08 05:25:00,46.2,41.0,29.93,WSW,242,0.0,1.0,82,0.00,,,0.03,VWS V14.01,2013-02-08 13:25:00,
2013-02-08 05:27:00,46.3,41.1,29.93,WSW,242,0.0,0.0,82,0.00,,,0.03,VWS V14.01,2013-02-08 13:27:00,
2013-02-08 05:31:00,46.4,41.2,29.93,WSW,242,0.0,0.0,82,0.01,,,0.04,VWS V14.01,2013-02-08 13:31:00,
2013-02-08 05:32:00,46.5,41.3,29.93,WSW,246,1.0,1.0,82,0.01,,,0.04,VWS V14.01,2013-02-08 13:32:00,
2013-02-08 05:34:00,46.6,41.4,29.93,WSW,246,0.0,0.0,82,0.01,,,0.04,VWS V14.01,2013-02-08 13:34:00,
2013-02-08 05:36:00,46.7,41.5,29.93,West,259,0.0,1.0,82,0.01,,,0.04,VWS V14.01,2013-02-08 13:36:00,
2013-02-08 05:37:00,46.7,41.5,29.93,West,259,0.0,1.0,82,0.01,,,0.04,VWS V14.01,2013-02-08 13:37:00,
2013-02-08 05:40:00,46.9,41.7,29.93,WSW,241,0.0,1.0,82,0.01,,,0.04,VWS V14.01,2013-02-08 13:40:00,
2013-02-08 05:41:00,46.9,41.7,29.93,WSW,240,0.0,0.0,82,0.01,,,0.04,VWS V14.01,2013-02-08 13:41:00,
2013-02-08 05:42:00,46.9,41.7,29.93,West,267,2.0,2.0,82,0.01,,,0.04,VWS V14.01,2013-02-08 13:42:00,
2013-02-08 05:45:00,47.0,41.5,29.93,West,260,0.0,0.0,81,0.01,,,0.04,VWS V14.01,2013-02-08 13:45:00,
2013-02-08 05:47:00,47.0,41.5,29.93,West,259,0.0,1.0,81,0.01,,,0.04,VWS V14.01,2013-02-08 13:47:00,
2013-02-08 05:49:00,47.1,41.9,29.93,SW,226,1.0,1.0,82,0.01,,,0.04,VWS V14.01,2013-02-08 13:49:00,
2013-02-08 05:52:00,47.1,41.9,29.93,WSW,258,4.0,4.0,82,0.01,,,0.04,VWS V14.01,2013-02-08 13:52:00,
2013-02-08 05:53:00,47.1,41.9,29.93,WSW,257,0.0,4.0,82,0.01,,,0.04,VWS V14.01,2013-02-08 13:53:00,
2013-02-08 05:56:00,47.2,42.0,29.93,WSW,245,0.0,0.0,82,0.01,,,0.04,VWS V14.01,2013-02-08 13:56:00,
2013-02-08 05:57:00,47.2,42.0,29.93,WSW,244,0.0,0.0,82,0.01,,,0.04,VWS V14.01,2013-02-08 13:57:00,
2013-02-08 05:58:00,47.3,41.8,29.93,WSW,245,0.0,0.0,81,0.01,,,0.04,VWS V14.01,2013-02-08 13:58:00,
2013-02-08 06:02:00,47.3,41.8,29.93,SW,236,1.0,2.0,81,0.01,,,0.04,VWS V14.01,2013-02-08 14:02:00,
2013-02-08 06:03:00,47.3,41.8,29.93,West,270,0.0,2.0,81,0.01,,,0.04,VWS V14.01,2013-02-08 14:03:00,
2013-02-08 06:06:00,47.3,41.8,29.93,SW,231,0.0,0.0,81,0.01,,,0.04,VWS V14.01,2013-02-08 14:06:00,
2013-02-08 06:08:00,47.4,41.9,29.93,WSW,245,0.0,0.0,81,0.01,,,0.04,VWS V14.01,2013-02-08 14:08:00,
2013-02-08 06:09:00,47.4,41.9,29.93,SW,235,0.0,1.0,81,0.01,,,0.04,VWS V14.01,2013-02-08 14:09:00,
2013-02-08 06:13:00,47.5,41.7,29.93,WSW,240,0.0,0.0,80,0.01,,,0.04,VWS V14.01,2013-02-08 14:13:00,
2013-02-08 06:14:00,47.6,41.8,29.93,WSW,240,0.0,0.0,80,0.01,,,0.04,VWS V14.01,2013-02-08 14:14:00,
2013-02-08 06:18:00,47.5,41.7,29.93,West,267,2.0,2.0,80,0.01,,,0.04,VWS V14.01,2013-02-08 14:18:00,
2013-02-08 06:19:00,47.5,41.7,29.93,WSW,248,1.0,1.0,80,0.01,,,0.04,VWS V14.01,2013-02-08 14:19:00,
2013-02-08 06:20:00,47.6,41.8,29.93,WSW,239,0.0,1.0,80,0.01,,,0.04,VWS V14.01,2013-02-08 14:20:00,
2013-02-08 06:25:00,47.5,41.7,29.93,SW,218,2.0,2.0,80,0.01,,,0.04,VWS V14.01,2013-02-08 14:25:00,
2013-02-08 06:30:00,47.5,41.7,29.93,NW,316,0.0,2.0,80,0.01,,,0.04,VWS V14.01,2013-02-08 14:30:00,
2013-02-08 06:31:00,47.5,41.7,29.93,NW,316,0.0,0.0,80,0.00,,,0.04,VWS V14.01,2013-02-08 14:31:00,
2013-02-08 06:34:00,47.4,41.5,29.93,WSW,255,0.0,0.0,80,0.00,,,0.04,VWS V14.01,2013-02-08 14:34:00,
2013-02-08 06:35:00,47.3,41.5,29.93,WSW,254,0.0,0.0,80,0.00,,,0.04,VWS V14.01,2013-02-08 14:35:00,
2013-02-08 06:36:00,47.3,41.5,29.93,WSW,240,1.0,1.0,80,0.00,,,0.04,VWS V14.01,2013-02-08 14:36:00,
2013-02-08 06:40:00,47.2,41.4,29.93,WSW,240,0.0,0.0,80,0.00,,,0.04,VWS V14.01,2013-02-08 14:40:00,
2013-02-08 06:41:00,47.1,41.3,29.93,WSW,241,0.0,0.0,80,0.00,,,0.04,VWS V14.01,2013-02-08 14:41:00,
2013-02-08 06:46:00,47.0,41.8,29.93,WSW,241,0.0,0.0,82,0.00,,,0.04,VWS V14.01,2013-02-08 14:46:00,
2013-02-08 06:47:00,47.0,41.8,29.93,WSW,240,0.0,0.0,82,0.00,,,0.04,VWS V14.01,2013-02-08 14:47:00,
2013-02-08 06:48:00,47.0,41.8,29.93,WSW,240,0.0,0.0,82,0.00,,,0.04,VWS V14.01,2013-02-08 14:48:00,
2013-02-08 06:50:00,47.1,41.9,29.93,WSW,240,0.0,1.0,82,0.00,,,0.04,VWS V14.01,2013-02-08 14:50:00,
2013-02-08 06:51:00,47.0,41.8,29.93,WSW,240,0.0,0.0,82,0.00,,,0.04,VWS V14.01,2013-02-08 14:51:00,
2013-02-08 06:54:00,47.0,41.8,29.93,WSW,240,0.0,0.0,82,0.00,,,0.04,VWS V14.01,2013-02-08 14:54:00,
2013-02-08 06:55:00,47.0,41.8,29.93,WSW,240,0.0,1.0,82,0.00,,,0.04,VWS V14.01,2013-02-08 14:55:00,
2013-02-08 06:56:00,47.1,42.2,29.93,WSW,240,1.0,1.0,83,0.00,,,0.04,VWS V14.01,2013-02-08 14:56:00,
2013-02-08 07:01:00,47.1,41.9,29.93,WSW,240,0.0,0.0,82,0.00,,,0.04,VWS V14.01,2013-02-08 15:01:00,
2013-02-08 07:02:00,47.2,42.3,29.93,WSW,240,0.0,0.0,83,0.00,,,0.04,VWS V14.01,2013-02-08 15:02:00,
2013-02-08 07:06:00,47.3,42.4,29.94,WSW,240,0.0,0.0,83,0.00,,,0.04,VWS V14.01,2013-02-08 15:06:00,
2013-02-08 07:07:00,47.3,42.4,29.94,WSW,240,0.0,0.0,83,0.00,,,0.04,VWS V14.01,2013-02-08 15:07:00,
2013-02-08 07:12:00,47.2,42.3,29.94,West,263,6.0,6.0,83,0.00,,,0.04,VWS V14.01,2013-02-08 15:12:00,
2013-02-08 07:13:00,47.3,42.4,29.94,West,264,5.0,7.0,83,0.00,,,0.04,VWS V14.01,2013-02-08 15:13:00,
2013-02-08 07:14:00,47.4,42.5,29.94,WSW,244,3.0,6.0,83,0.00,,,0.04,VWS V14.01,2013-02-08 15:14:00,
2013-02-08 07:18:00,47.9,42.7,29.94,West,277,3.0,7.0,82,0.00,,,0.04,VWS V14.01,2013-02-08 15:18:00,
2013-02-08 07:19:00,48.0,42.8,29.94,West,277,3.0,4.0,82,0.00,,,0.04,VWS V14.01,2013-02-08 15:19:00,
2013-02-08 07:23:00,48.1,42.9,29.94,West,280,1.0,8.0,82,0.00,,,0.04,VWS V14.01,2013-02-08 15:23:00,
2013-02-08 07:24:00,48.2,43.0,29.94,West,277,3.0,4.0,82,0.00,,,0.04,VWS V14.01,2013-02-08 15:24:00,
2013-02-08 07:25:00,48.2,43.0,29.94,West,263,3.0,4.0,82,0.00,,,0.04,VWS V14.01,2013-02-08 15:25:00,
2013-02-08 07:28:00,48.3,43.1,29.94,West,267,2.0,3.0,82,0.00,,,0.04,VWS V14.01,2013-02-08 15:28:00,
2013-02-08 07:30:00,48.3,43.1,29.94,WNW,288,1.0,5.0,82,0.00,,,0.04,VWS V14.01,2013-02-08 15:30:00,
2013-02-08 07:35:00,48.6,43.4,29.94,West,267,0.0,1.0,82,0.00,,,0.04,VWS V14.01,2013-02-08 15:35:00,
2013-02-08 07:37:00,48.7,43.5,29.94,SW,236,2.0,3.0,82,0.00,,,0.04,VWS V14.01,2013-02-08 15:37:00,
2013-02-08 07:40:00,48.8,43.9,29.94,WSW,245,2.0,2.0,83,0.01,,,0.05,VWS V14.01,2013-02-08 15:40:00,
2013-02-08 07:42:00,48.7,43.8,29.94,WSW,255,5.0,7.0,83,0.01,,,0.05,VWS V14.01,2013-02-08 15:42:00,
2013-02-08 07:45:00,48.5,43.9,29.94,WSW,245,5.0,10.0,84,0.02,,,0.06,VWS V14.01,2013-02-08 15:45:00,
2013-02-08 07:47:00,48.3,43.7,29.94,West,277,4.0,8.0,84,0.03,,,0.07,VWS V14.01,2013-02-08 15:47:00,
2013-02-08 07:51:00,47.6,43.3,29.94,WNW,290,5.0,9.0,85,0.05,,,0.09,VWS V14.01,2013-02-08 15:51:00,
2013-02-08 07:52:00,47.4,43.1,29.94,West,264,4.0,12.0,85,0.05,,,0.09,VWS V14.01,2013-02-08 15:52:00,
2013-02-08 07:57:00,46.9,43.2,29.95,West,262,8.0,12.0,87,0.07,,,0.11,VWS V14.01,2013-02-08 15:57:00,
2013-02-08 07:59:00,46.7,43.0,29.95,WNW,282,5.0,8.0,87,0.08,,,0.12,VWS V14.01,2013-02-08 15:59:00,
2013-02-08 08:02:00,46.6,43.2,29.95,SW,234,2.0,5.0,88,0.08,,,0.12,VWS V14.01,2013-02-08 16:02:00,
2013-02-08 08:07:00,46.5,43.4,29.95,WNW,295,2.0,3.0,89,0.08,,,0.12,VWS V14.01,2013-02-08 16:07:00,
2013-02-08 08:12:00,46.7,43.6,29.95,West,280,3.0,5.0,89,0.08,,,0.12,VWS V14.01,2013-02-08 16:12:00,
2013-02-08 08:13:00,46.8,43.4,29.94,WSW,249,3.0,3.0,88,0.08,,,0.12,VWS V14.01,2013-02-08 16:13:00,
2013-02-08 08:14:00,46.8,43.4,29.94,West,280,2.0,2.0,88,0.08,,,0.12,VWS V14.01,2013-02-08 16:14:00,
2013-02-08 08:17:00,47.0,43.6,29.94,SW,231,2.0,4.0,88,0.08,,,0.12,VWS V14.01,2013-02-08 16:17:00,
2013-02-08 08:18:00,46.9,43.2,29.94,WNW,300,0.0,1.0,87,0.08,,,0.12,VWS V14.01,2013-02-08 16:18:00,
2013-02-08 08:21:00,47.0,43.3,29.94,SW,236,2.0,2.0,87,0.08,,,0.12,VWS V14.01,2013-02-08 16:21:00,
2013-02-08 08:23:00,47.1,43.7,29.94,SW,235,1.0,1.0,88,0.08,,,0.12,VWS V14.01,2013-02-08 16:23:00,
2013-02-08 08:24:00,47.2,43.5,29.94,SW,235,0.0,0.0,87,0.08,,,0.12,VWS V14.01,2013-02-08 16:24:00,
2013-02-08 08:26:00,47.3,43.6,29.94,WSW,238,1.0,1.0,87,0.08,,,0.12,VWS V14.01,2013-02-08 16:26:00,
2013-02-08 08:29:00,47.3,43.6,29.94,WSW,246,0.0,0.0,87,0.08,,,0.12,VWS V14.01,2013-02-08 16:29:00,
2013-02-08 08:30:00,47.3,43.6,29.95,WSW,252,1.0,1.0,87,0.08,,,0.12,VWS V14.01,2013-02-08 16:30:00,
2013-02-08 08:32:00,47.4,43.7,29.95,WNW,302,0.0,1.0,87,0.08,,,0.12,VWS V14.01,2013-02-08 16:32:00,
2013-02-08 08:33:00,47.4,43.7,29.95,SW,231,1.0,1.0,87,0.08,,,0.12,VWS V14.01,2013-02-08 16:33:00,
2013-02-08 08:36:00,47.6,43.9,29.95,West,262,2.0,2.0,87,0.08,,,0.12,VWS V14.01,2013-02-08 16:36:00,
2013-02-08 08:38:00,47.6,43.9,29.95,WSW,239,0.0,2.0,87,0.08,,,0.12,VWS V14.01,2013-02-08 16:38:00,
2013-02-08 08:43:00,47.8,43.8,29.94,SW,233,2.0,2.0,86,0.07,,,0.12,VWS V14.01,2013-02-08 16:43:00,
2013-02-08 08:47:00,48.0,43.7,29.94,West,259,3.0,3.0,85,0.05,,,0.12,VWS V14.01,2013-02-08 16:47:00,
2013-02-08 08:48:00,48.0,43.7,29.94,West,266,3.0,3.0,85,0.05,,,0.12,VWS V14.01,2013-02-08 16:48:00,
2013-02-08 08:50:00,48.1,43.5,29.95,WSW,252,1.0,5.0,84,0.04,,,0.12,VWS V14.01,2013-02-08 16:50:00,
2013-02-08 08:53:00,48.2,43.6,29.95,SW,231,4.0,4.0,84,0.03,,,0.12,VWS V14.01,2013-02-08 16:53:00,
2013-02-08 08:55:00,48.3,43.4,29.95,SW,226,2.0,4.0,83,0.03,,,0.12,VWS V14.01,2013-02-08 16:55:00,
2013-02-08 09:00:00,48.5,43.6,29.95,WSW,237,1.0,5.0,83,0.00,,,0.12,VWS V14.01,2013-02-08 17:00:00,
2013-02-08 09:01:00,48.6,43.7,29.95,SW,214,2.0,4.0,83,0.00,,,0.12,VWS V14.01,2013-02-08 17:01:00,
2013-02-08 09:02:00,48.7,43.8,29.95,SW,225,3.0,3.0,83,0.00,,,0.12,VWS V14.01,2013-02-08 17:02:00,
2013-02-08 09:06:00,48.7,43.8,29.95,SSW,205,4.0,6.0,83,0.01,,,0.13,VWS V14.01,2013-02-08 17:06:00,
2013-02-08 09:11:00,48.5,43.0,29.94,SSW,210,3.0,3.0,81,0.01,,,0.13,VWS V14.01,2013-02-08 17:11:00,
2013-02-08 09:12:00,48.6,43.0,29.94,SSW,207,4.0,5.0,81,0.01,,,0.13,VWS V14.01,2013-02-08 17:12:00,
2013-02-08 09:16:00,48.6,43.0,29.94,SSW,212,3.0,3.0,81,0.01,,,0.13,VWS V14.01,2013-02-08 17:16:00,
2013-02-08 09:17:00,48.6,43.0,29.94,SW,226,7.0,7.0,81,0.01,,,0.13,VWS V14.01,2013-02-08 17:17:00,
2013-02-08 09:18:00,48.6,43.0,29.94,SSE,158,4.0,7.0,81,0.01,,,0.13,VWS V14.01,2013-02-08 17:18:00,
2013-02-08 09:21:00,48.6,42.7,29.94,SSW,204,3.0,4.0,80,0.01,,,0.13,VWS V14.01,2013-02-08 17:21:00,
2013-02-08 09:23:00,48.6,42.7,29.94,SW,225,4.0,4.0,80,0.01,,,0.13,VWS V14.01,2013-02-08 17:23:00,
2013-02-08 09:25:00,48.5,43.0,29.94,WSW,248,1.0,1.0,81,0.02,,,0.14,VWS V14.01,2013-02-08 17:25:00,
2013-02-08 09:26:00,48.5,43.0,29.94,SSW,204,2.0,3.0,81,0.02,,,0.14,VWS V14.01,2013-02-08 17:26:00,
2013-02-08 09:29:00,48.5,43.3,29.94,SW,232,0.0,0.0,82,0.02,,,0.14,VWS V14.01,2013-02-08 17:29:00,
2013-02-08 09:30:00,48.5,43.3,29.94,SW,232,0.0,0.0,82,0.02,,,0.14,VWS V14.01,2013-02-08 17:30:00,
2013-02-08 09:31:00,48.5,43.3,29.94,WSW,238,1.0,1.0,82,0.02,,,0.14,VWS V14.01,2013-02-08 17:31:00,
2013-02-08 09:33:00,48.6,43.7,29.94,South,180,1.0,1.0,83,0.02,,,0.14,VWS V14.01,2013-02-08 17:33:00,
2013-02-08 09:35:00,48.6,43.7,29.94,South,184,1.0,1.0,83,0.02,,,0.14,VWS V14.01,2013-02-08 17:35:00,
2013-02-08 09:36:00,48.6,43.7,29.94,South,173,2.0,3.0,83,0.02,,,0.14,VWS V14.01,2013-02-08 17:36:00,
2013-02-08 09:40:00,48.7,44.1,29.94,WNW,284,2.0,3.0,84,0.02,,,0.14,VWS V14.01,2013-02-08 17:40:00,
2013-02-08 09:41:00,48.7,44.1,29.94,WSW,242,3.0,10.0,84,0.02,,,0.14,VWS V14.01,2013-02-08 17:41:00,
2013-02-08 09:42:00,48.7,44.1,29.94,SW,221,4.0,4.0,84,0.02,,,0.14,VWS V14.01,2013-02-08 17:42:00,
2013-02-08 09:46:00,48.7,44.1,29.94,SSW,204,3.0,4.0,84,0.02,,,0.14,VWS V14.01,2013-02-08 17:46:00,
2013-02-08 09:48:00,48.7,44.1,29.94,SSW,198,4.0,6.0,84,0.02,,,0.14,VWS V14.01,2013-02-08 17:48:00,
2013-02-08 09:50:00,48.8,44.2,29.94,SSW,212,3.0,4.0,84,0.02,,,0.14,VWS V14.01,2013-02-08 17:50:00,
2013-02-08 09:53:00,49.2,44.6,29.94,SSW,198,3.0,3.0,84,0.02,,,0.14,VWS V14.01,2013-02-08 17:53:00,
2013-02-08 09:55:00,49.4,44.5,29.94,WSW,247,2.0,6.0,83,0.02,,,0.14,VWS V14.01,2013-02-08 17:55:00,
2013-02-08 09:58:00,49.7,44.4,29.94,SW,217,5.0,6.0,82,0.02,,,0.14,VWS V14.01,2013-02-08 17:58:00,
2013-02-08 09:59:00,49.7,44.1,29.94,West,280,2.0,5.0,81,0.02,,,0.14,VWS V14.01,2013-02-08 17:59:00,
2013-02-08 10:00:00,49.9,44.3,29.94,SSW,203,3.0,6.0,81,0.02,,,0.14,VWS V14.01,2013-02-08 18:00:00,
2013-02-08 10:03:00,50.3,45.0,29.94,SSW,205,4.0,4.0,82,0.02,,,0.14,VWS V14.01,2013-02-08 18:03:00,
2013-02-08 10:04:00,50.5,44.9,29.94,SSW,203,1.0,2.0,81,0.01,,,0.14,VWS V14.01,2013-02-08 18:04:00,
2013-02-08 10:06:00,50.9,45.6,29.94,SW,217,4.0,6.0,82,0.01,,,0.14,VWS V14.01,2013-02-08 18:06:00,
2013-02-08 10:08:00,51.2,45.2,29.94,SE,143,3.0,3.0,80,0.01,,,0.14,VWS V14.01,2013-02-08 18:08:00,
2013-02-08 10:09:00,51.2,44.9,29.94,SSW,200,3.0,5.0,79,0.01,,,0.14,VWS V14.01,2013-02-08 18:09:00,
2013-02-08 10:13:00,51.2,43.6,29.94,SW,224,4.0,6.0,75,0.01,,,0.14,VWS V14.01,2013-02-08 18:13:00,
2013-02-08 10:14:00,51.0,43.4,29.94,SSW,211,3.0,6.0,75,0.01,,,0.14,VWS V14.01,2013-02-08 18:14:00,
2013-02-08 10:18:00,50.8,43.5,29.94,SSE,165,2.0,5.0,76,0.01,,,0.14,VWS V14.01,2013-02-08 18:18:00,
2013-02-08 10:19:00,50.8,43.5,29.94,ESE,104,2.0,2.0,76,0.01,,,0.14,VWS V14.01,2013-02-08 18:19:00,
2013-02-08 10:20:00,50.8,43.5,29.93,SSW,209,4.0,5.0,76,0.01,,,0.14,VWS V14.01,2013-02-08 18:20:00,
2013-02-08 10:23:00,50.9,44.0,29.93,SSW,204,3.0,4.0,77,0.01,,,0.14,VWS V14.01,2013-02-08 18:23:00,
2013-02-08 10:25:00,51.0,44.0,29.93,SSE,149,2.0,6.0,77,0.00,,,0.14,VWS V14.01,2013-02-08 18:25:00,
2013-02-08 10:26:00,51.0,43.7,29.93,ESE,103,3.0,5.0,76,0.00,,,0.14,VWS V14.01,2013-02-08 18:26:00,
2013-02-08 10:29:00,51.2,44.2,29.93,ESE,113,6.0,6.0,77,0.00,,,0.14,VWS V14.01,2013-02-08 18:29:00,
2013-02-08 10:30:00,51.5,44.5,29.93,SE,140,1.0,3.0,77,0.00,,,0.14,VWS V14.01,2013-02-08 18:30:00,
2013-02-08 10:31:00,51.7,44.4,29.93,SE,136,3.0,6.0,76,0.00,,,0.14,VWS V14.01,2013-02-08 18:31:00,
2013-02-08 10:33:00,52.1,44.4,29.93,SSW,193,5.0,6.0,75,0.00,,,0.14,VWS V14.01,2013-02-08 18:33:00,
2013-02-08 10:35:00,52.2,43.8,29.93,SW,225,2.0,5.0,73,0.00,,,0.14,VWS V14.01,2013-02-08 18:35:00,
2013-02-08 10:37:00,52.4,44.7,29.93,SSW,198,3.0,7.0,75,0.00,,,0.14,VWS V14.01,2013-02-08 18:37:00,
2013-02-08 10:38:00,52.5,44.5,29.93,SSW,198,4.0,5.0,74,0.00,,,0.14,VWS V14.01,2013-02-08 18:38:00,
2013-02-08 10:40:00,52.4,43.7,29.93,SSE,153,3.0,5.0,72,0.00,,,0.14,VWS V14.01,2013-02-08 18:40:00,
2013-02-08 10:42:00,52.3,43.5,29.93,NW,319,2.0,6.0,72,0.00,,,0.14,VWS V14.01,2013-02-08 18:42:00,
2013-02-08 10:45:00,52.2,43.1,29.92,WSW,252,7.0,7.0,71,0.00,,,0.14,VWS V14.01,2013-02-08 18:45:00,
2013-02-08 10:46:00,52.1,43.0,29.92,South,190,4.0,8.0,71,0.00,,,0.14,VWS V14.01,2013-02-08 18:46:00,
2013-02-08 10:47:00,52.0,42.9,29.93,SW,214,4.0,5.0,71,0.00,,,0.14,VWS V14.01,2013-02-08 18:47:00,
2013-02-08 10:51:00,51.8,43.1,29.93,West,274,1.0,3.0,72,0.00,,,0.14,VWS V14.01,2013-02-08 18:51:00,
2013-02-08 10:53:00,52.0,43.6,29.93,West,265,2.0,4.0,73,0.00,,,0.14,VWS V14.01,2013-02-08 18:53:00,
2013-02-08 10:54:00,52.0,43.3,29.93,West,262,5.0,7.0,72,0.00,,,0.14,VWS V14.01,2013-02-08 18:54:00,
2013-02-08 10:56:00,52.4,44.0,29.92,SW,225,6.0,7.0,73,0.00,,,0.14,VWS V14.01,2013-02-08 18:56:00,
2013-02-08 10:59:00,53.0,44.2,29.92,SSE,168,4.0,6.0,72,0.00,,,0.14,VWS V14.01,2013-02-08 18:59:00,
2013-02-08 11:01:00,53.4,45.0,29.92,SW,236,6.0,7.0,73,0.00,,,0.14,VWS V14.01,2013-02-08 19:01:00,
2013-02-08 11:04:00,53.6,44.1,29.92,WSW,243,8.0,9.0,70,0.00,,,0.14,VWS V14.01,2013-02-08 19:04:00,
2013-02-08 11:08:00,53.3,43.4,29.92,NW,305,2.0,7.0,69,0.00,,,0.14,VWS V14.01,2013-02-08 19:08:00,
2013-02-08 11:09:00,53.2,43.3,29.92,West,274,8.0,12.0,69,0.00,,,0.14,VWS V14.01,2013-02-08 19:09:00,
2013-02-08 11:11:00,52.9,42.3,29.92,WNW,302,6.0,15.0,67,0.00,,,0.14,VWS V14.01,2013-02-08 19:11:00,
2013-02-08 11:14:00,52.6,42.7,29.92,West,262,8.0,11.0,69,0.00,,,0.14,VWS V14.01,2013-02-08 19:14:00,
2013-02-08 11:18:00,52.3,42.1,29.92,West,274,3.0,10.0,68,0.00,,,0.14,VWS V14.01,2013-02-08 19:18:00,
2013-02-08 11:19:00,52.3,42.8,29.92,West,270,5.0,7.0,70,0.00,,,0.14,VWS V14.01,2013-02-08 19:19:00,
2013-02-08 11:20:00,52.2,43.1,29.92,WNW,285,4.0,9.0,71,0.00,,,0.14,VWS V14.01,2013-02-08 19:20:00,
2013-02-08 11:24:00,51.9,43.9,29.92,West,269,5.0,11.0,74,0.00,,,0.14,VWS V14.01,2013-02-08 19:24:00,
2013-02-08 11:25:00,51.8,44.1,29.92,WNW,283,3.0,8.0,75,0.00,,,0.14,VWS V14.01,2013-02-08 19:25:00,
2013-02-08 11:29:00,51.0,43.7,29.92,WNW,283,6.0,8.0,76,0.01,,,0.15,VWS V14.01,2013-02-08 19:29:00,
2013-02-08 11:30:00,50.6,43.0,29.92,NW,304,7.0,12.0,75,0.01,,,0.15,VWS V14.01,2013-02-08 19:30:00,
2013-02-08 11:34:00,48.3,42.1,29.93,West,276,3.0,4.0,79,0.04,,,0.18,VWS V14.01,2013-02-08 19:34:00,
2013-02-08 11:36:00,47.5,42.0,29.93,West,277,1.0,7.0,81,0.04,,,0.18,VWS V14.01,2013-02-08 19:36:00,
2013-02-08 11:39:00,46.7,42.1,29.93,WNW,283,2.0,5.0,84,0.05,,,0.19,VWS V14.01,2013-02-08 19:39:00,
2013-02-08 11:40:00,46.5,41.9,29.92,West,262,4.0,4.0,84,0.05,,,0.19,VWS V14.01,2013-02-08 19:40:00,
2013-02-08 11:41:00,46.4,42.1,29.92,West,268,1.0,4.0,85,0.05,,,0.19,VWS V14.01,2013-02-08 19:41:00,
2013-02-08 11:44:00,46.3,42.3,29.92,NNW,340,0.0,2.0,86,0.05,,,0.19,VWS V14.01,2013-02-08 19:44:00,
2013-02-08 11:45:00,46.2,42.5,29.92,WSW,256,0.0,0.0,87,0.05,,,0.19,VWS V14.01,2013-02-08 19:45:00,
2013-02-08 11:46:00,46.2,42.5,29.92,WSW,256,0.0,0.0,87,0.05,,,0.19,VWS V14.01,2013-02-08 19:46:00,
2013-02-08 11:49:00,46.3,42.7,29.92,West,266,1.0,2.0,87,0.05,,,0.19,VWS V14.01,2013-02-08 19:49:00,
2013-02-08 11:51:00,46.4,43.0,29.92,West,269,1.0,1.0,88,0.05,,,0.19,VWS V14.01,2013-02-08 19:51:00,
2013-02-08 11:53:00,46.6,43.5,29.92,West,269,0.0,0.0,89,0.05,,,0.19,VWS V14.01,2013-02-08 19:53:00,
2013-02-08 11:54:00,46.8,43.7,29.92,West,280,1.0,1.0,89,0.05,,,0.19,VWS V14.01,2013-02-08 19:54:00,
2013-02-08 11:56:00,47.2,44.4,29.92,WSW,247,1.0,1.0,90,0.05,,,0.19,VWS V14.01,2013-02-08 19:56:00,
2013-02-08 11:57:00,47.3,44.2,29.92,WNW,295,1.0,1.0,89,0.05,,,0.19,VWS V14.01,2013-02-08 19:57:00,
2013-02-08 11:58:00,47.4,44.3,29.92,NNW,347,1.0,1.0,89,0.05,,,0.19,VWS V14.01,2013-02-08 19:58:00,
2013-02-08 11:59:00,47.5,44.4,29.92,North,1,1.0,2.0,89,0.05,,,0.19,VWS V14.01,2013-02-08 19:59:00,
2013-02-08 12:02:00,47.7,44.3,29.92,NW,326,0.0,0.0,88,0.05,,,0.19,VWS V14.01,2013-02-08 20:02:00,
2013-02-08 12:03:00,47.8,44.4,29.92,WNW,288,1.0,2.0,88,0.05,,,0.19,VWS V14.01,2013-02-08 20:03:00,
2013-02-08 12:06:00,48.0,44.3,29.91,NW,307,0.0,2.0,87,0.05,,,0.19,VWS V14.01,2013-02-08 20:06:00,
2013-02-08 12:08:00,48.3,44.6,29.91,North,359,2.0,2.0,87,0.05,,,0.19,VWS V14.01,2013-02-08 20:08:00,
2013-02-08 12:12:00,48.8,44.8,29.91,WNW,303,1.0,1.0,86,0.05,,,0.19,VWS V14.01,2013-02-08 20:12:00,
2013-02-08 12:15:00,49.3,45.0,29.90,NW,307,1.0,2.0,85,0.05,,,0.19,VWS V14.01,2013-02-08 20:15:00,
2013-02-08 12:17:00,49.5,44.9,29.90,NE,39,1.0,2.0,84,0.05,,,0.19,VWS V14.01,2013-02-08 20:17:00,
2013-02-08 12:18:00,49.6,45.0,29.90,NE,42,0.0,2.0,84,0.05,,,0.19,VWS V14.01,2013-02-08 20:18:00,
2013-02-08 12:20:00,49.9,45.6,29.90,NE,37,0.0,0.0,85,0.05,,,0.19,VWS V14.01,2013-02-08 20:20:00,
2013-02-08 12:23:00,50.1,44.8,29.90,WSW,242,1.0,2.0,82,0.05,,,0.19,VWS V14.01,2013-02-08 20:23:00,
2013-02-08 12:25:00,50.2,44.9,29.90,NW,316,1.0,3.0,82,0.05,,,0.19,VWS V14.01,2013-02-08 20:25:00,
2013-02-08 12:26:00,50.3,45.0,29.90,SW,226,2.0,2.0,82,0.05,,,0.19,VWS V14.01,2013-02-08 20:26:00,
2013-02-08 12:28:00,50.5,45.2,29.89,SE,129,2.0,3.0,82,0.04,,,0.19,VWS V14.01,2013-02-08 20:28:00,
2013-02-08 12:30:00,50.6,44.7,29.89,SSW,201,2.0,2.0,80,0.04,,,0.19,VWS V14.01,2013-02-08 20:30:00,
2013-02-08 12:33:00,50.8,44.5,29.89,SSW,201,0.0,0.0,79,0.02,,,0.19,VWS V14.01,2013-02-08 20:33:00,
2013-02-08 12:34:00,51.0,44.7,29.89,SSW,200,0.0,0.0,79,0.01,,,0.19,VWS V14.01,2013-02-08 20:34:00,
2013-02-08 12:35:00,51.1,44.8,29.89,SSW,200,0.0,0.0,79,0.01,,,0.19,VWS V14.01,2013-02-08 20:35:00,
2013-02-08 12:38:00,51.5,45.2,29.89,WNW,301,2.0,3.0,79,0.01,,,0.19,VWS V14.01,2013-02-08 20:38:00,
2013-02-08 12:40:00,51.7,45.4,29.89,NNW,337,2.0,2.0,79,0.00,,,0.19,VWS V14.01,2013-02-08 20:40:00,
2013-02-08 12:43:00,51.5,44.5,29.88,SW,232,5.0,5.0,77,0.00,,,0.19,VWS V14.01,2013-02-08 20:43:00,
2013-02-08 12:44:00,51.3,44.3,29.88,West,273,1.0,1.0,77,0.00,,,0.19,VWS V14.01,2013-02-08 20:44:00,
2013-02-08 12:47:00,51.1,44.5,29.88,SW,229,2.0,4.0,78,0.00,,,0.19,VWS V14.01,2013-02-08 20:47:00,
2013-02-08 12:49:00,51.2,44.9,29.88,NNE,13,2.0,2.0,79,0.00,,,0.19,VWS V14.01,2013-02-08 20:49:00,
2013-02-08 12:53:00,51.3,45.0,29.88,WNW,282,1.0,3.0,79,0.00,,,0.19,VWS V14.01,2013-02-08 20:53:00,
2013-02-08 12:55:00,51.4,45.1,29.88,NNE,23,2.0,4.0,79,0.00,,,0.19,VWS V14.01,2013-02-08 20:55:00,
2013-02-08 12:58:00,51.3,44.3,29.88,WSW,255,3.0,6.0,77,0.00,,,0.19,VWS V14.01,2013-02-08 20:58:00,
2013-02-08 13:00:00,51.3,44.0,29.88,West,270,2.0,5.0,76,0.00,,,0.19,VWS V14.01,2013-02-08 21:00:00,
2013-02-08 13:01:00,51.4,44.4,29.88,West,269,9.0,9.0,77,0.00,,,0.19,VWS V14.01,2013-02-08 21:01:00,
2013-02-08 13:03:00,51.3,43.7,29.88,WSW,246,5.0,6.0,75,0.00,,,0.19,VWS V14.01,2013-02-08 21:03:00,
2013-02-08 13:04:00,51.3,43.7,29.87,WSW,239,4.0,5.0,75,0.00,,,0.19,VWS V14.01,2013-02-08 21:04:00,
2013-02-08 13:05:00,51.3,43.7,29.87,WSW,256,4.0,8.0,75,0.00,,,0.19,VWS V14.01,2013-02-08 21:05:00,
2013-02-08 13:08:00,51.2,43.2,29.87,West,271,4.0,6.0,74,0.00,,,0.19,VWS V14.01,2013-02-08 21:08:00,
2013-02-08 13:09:00,51.2,43.2,29.87,WNW,287,5.0,6.0,74,0.00,,,0.19,VWS V14.01,2013-02-08 21:09:00,
2013-02-08 13:10:00,51.2,43.2,29.87,WSW,242,2.0,4.0,74,0.00,,,0.19,VWS V14.01,2013-02-08 21:10:00,
2013-02-08 13:15:00,51.1,43.5,29.87,WSW,238,9.0,9.0,75,0.00,,,0.19,VWS V14.01,2013-02-08 21:15:00,
2013-02-08 13:16:00,51.1,43.1,29.87,WSW,252,9.0,13.0,74,0.00,,,0.19,VWS V14.01,2013-02-08 21:16:00,
2013-02-08 13:20:00,51.1,43.8,29.87,West,266,5.0,11.0,76,0.00,,,0.19,VWS V14.01,2013-02-08 21:20:00,
2013-02-08 13:21:00,51.1,43.5,29.87,WSW,250,11.0,13.0,75,0.00,,,0.19,VWS V14.01,2013-02-08 21:21:00,
2013-02-08 13:23:00,51.1,43.1,29.86,South,184,6.0,9.0,74,0.00,,,0.19,VWS V14.01,2013-02-08 21:23:00,
2013-02-08 13:25:00,51.1,42.8,29.86,West,277,2.0,5.0,73,0.00,,,0.19,VWS V14.01,2013-02-08 21:25:00,
2013-02-08 13:26:00,51.2,43.6,29.86,North,1,2.0,6.0,75,0.00,,,0.19,VWS V14.01,2013-02-08 21:26:00,
2013-02-08 13:28:00,51.2,43.9,29.86,WSW,257,6.0,9.0,76,0.00,,,0.19,VWS V14.01,2013-02-08 21:28:00,
2013-02-08 13:30:00,51.1,43.8,29.86,NW,307,6.0,12.0,76,0.00,,,0.19,VWS V14.01,2013-02-08 21:30:00,
2013-02-08 13:33:00,50.7,43.8,29.87,WSW,240,7.0,14.0,77,0.01,,,0.20,VWS V14.01,2013-02-08 21:33:00,
2013-02-08 13:36:00,49.8,44.2,29.86,West,267,3.0,7.0,81,0.02,,,0.21,VWS V14.01,2013-02-08 21:36:00,
2013-02-08 13:38:00,49.6,44.0,29.86,WNW,285,5.0,7.0,81,0.02,,,0.21,VWS V14.01,2013-02-08 21:38:00,
2013-02-08 13:39:00,49.5,44.2,29.86,WNW,297,3.0,7.0,82,0.02,,,0.21,VWS V14.01,2013-02-08 21:39:00,
2013-02-08 13:41:00,49.6,44.0,29.86,SW,231,4.0,7.0,81,0.02,,,0.21,VWS V14.01,2013-02-08 21:41:00,
2013-02-08 13:44:00,49.8,44.8,29.86,West,278,3.0,4.0,83,0.02,,,0.21,VWS V14.01,2013-02-08 21:44:00,
2013-02-08 13:46:00,50.1,45.2,29.86,WSW,252,5.0,7.0,83,0.02,,,0.21,VWS V14.01,2013-02-08 21:46:00,
2013-02-08 13:47:00,50.1,44.2,29.86,West,266,3.0,7.0,80,0.02,,,0.21,VWS V14.01,2013-02-08 21:47:00,
2013-02-08 13:52:00,50.2,44.9,29.86,West,266,6.0,8.0,82,0.02,,,0.21,VWS V14.01,2013-02-08 21:52:00,
2013-02-08 13:57:00,51.2,45.6,29.85,WNW,295,6.0,10.0,81,0.02,,,0.21,VWS V14.01,2013-02-08 21:57:00,
2013-02-08 13:58:00,51.3,45.3,29.85,WSW,257,6.0,18.0,80,0.02,,,0.21,VWS V14.01,2013-02-08 21:58:00,
2013-02-08 14:00:00,51.4,43.8,29.85,West,276,7.0,11.0,75,0.02,,,0.21,VWS V14.01,2013-02-08 22:00:00,
2013-02-08 14:01:00,51.3,43.3,29.85,WNW,294,7.0,13.0,74,0.02,,,0.21,VWS V14.01,2013-02-08 22:01:00,
2013-02-08 14:03:00,51.4,43.8,29.85,West,277,8.0,14.0,75,0.02,,,0.21,VWS V14.01,2013-02-08 22:03:00,
2013-02-08 14:04:00,51.3,43.7,29.85,WSW,249,10.0,11.0,75,0.02,,,0.21,VWS V14.01,2013-02-08 22:04:00,
2013-02-08 14:06:00,51.2,43.6,29.85,WNW,284,5.0,7.0,75,0.02,,,0.21,VWS V14.01,2013-02-08 22:06:00,
2013-02-08 14:09:00,51.2,43.2,29.85,West,259,7.0,14.0,74,0.02,,,0.21,VWS V14.01,2013-02-08 22:09:00,
2013-02-08 14:10:00,51.2,42.9,29.85,WSW,247,14.0,14.0,73,0.02,,,0.21,VWS V14.01,2013-02-08 22:10:00,
2013-02-08 14:11:00,51.2,42.9,29.85,WNW,290,16.0,16.0,73,0.02,,,0.21,VWS V14.01,2013-02-08 22:11:00,
2013-02-08 14:13:00,51.2,42.9,29.85,WSW,256,10.0,10.0,73,0.02,,,0.21,VWS V14.01,2013-02-08 22:13:00,
2013-02-08 14:15:00,51.4,43.4,29.85,NNW,338,5.0,16.0,74,0.02,,,0.21,VWS V14.01,2013-02-08 22:15:00,
2013-02-08 14:16:00,51.5,43.5,29.85,West,263,6.0,10.0,74,0.02,,,0.21,VWS V14.01,2013-02-08 22:16:00,
2013-02-08 14:19:00,51.6,43.2,29.84,West,274,6.0,7.0,73,0.02,,,0.21,VWS V14.01,2013-02-08 22:19:00,
2013-02-08 14:20:00,51.6,43.2,29.84,WSW,255,6.0,14.0,73,0.02,,,0.21,VWS V14.01,2013-02-08 22:20:00,
2013-02-08 14:22:00,51.5,43.1,29.85,WSW,248,5.0,12.0,73,0.02,,,0.21,VWS V14.01,2013-02-08 22:22:00,
2013-02-08 14:27:00,51.5,42.8,29.85,WSW,243,13.0,15.0,72,0.02,,,0.21,VWS V14.01,2013-02-08 22:27:00,
2013-02-08 14:28:00,51.5,42.8,29.85,SW,226,9.0,15.0,72,0.02,,,0.21,VWS V14.01,2013-02-08 22:28:00,
2013-02-08 14:33:00,51.6,42.5,29.85,West,276,10.0,12.0,71,0.02,,,0.21,VWS V14.01,2013-02-08 22:33:00,
2013-02-08 14:35:00,51.7,43.0,29.85,West,259,10.0,13.0,72,0.00,,,0.21,VWS V14.01,2013-02-08 22:35:00,
2013-02-08 14:38:00,51.6,42.2,29.84,West,264,12.0,14.0,70,0.00,,,0.21,VWS V14.01,2013-02-08 22:38:00,
2013-02-08 14:39:00,51.6,41.8,29.84,WSW,248,9.0,14.0,69,0.00,,,0.21,VWS V14.01,2013-02-08 22:39:00,
2013-02-08 14:40:00,51.6,42.2,29.85,WSW,257,11.0,15.0,70,0.00,,,0.21,VWS V14.01,2013-02-08 22:40:00,
2013-02-08 14:43:00,51.7,42.2,29.85,West,262,4.0,5.0,70,0.00,,,0.21,VWS V14.01,2013-02-08 22:43:00,
2013-02-08 14:45:00,52.0,43.3,29.85,West,281,3.0,10.0,72,0.00,,,0.21,VWS V14.01,2013-02-08 22:45:00,
2013-02-08 14:50:00,52.3,42.5,29.84,WSW,248,4.0,4.0,69,0.00,,,0.21,VWS V14.01,2013-02-08 22:50:00,
2013-02-08 14:51:00,52.4,42.5,29.84,West,265,4.0,6.0,69,0.00,,,0.21,VWS V14.01,2013-02-08 22:51:00,
2013-02-08 14:53:00,52.1,41.9,29.84,WNW,290,11.0,16.0,68,0.00,,,0.21,VWS V14.01,2013-02-08 22:53:00,
2013-02-08 14:56:00,51.6,41.4,29.84,West,262,8.0,10.0,68,0.00,,,0.21,VWS V14.01,2013-02-08 22:56:00,
2013-02-08 14:57:00,51.4,41.6,29.84,West,265,7.0,9.0,69,0.00,,,0.21,VWS V14.01,2013-02-08 22:57:00,
2013-02-08 15:00:00,51.4,42.3,29.84,WSW,249,6.0,7.0,71,0.00,,,0.21,VWS V14.01,2013-02-08 23:00:00,
2013-02-08 15:01:00,51.4,42.7,29.84,WNW,287,8.0,8.0,72,0.00,,,0.21,VWS V14.01,2013-02-08 23:01:00,
2013-02-08 15:02:00,51.6,42.5,29.84,WSW,247,6.0,6.0,71,0.00,,,0.21,VWS V14.01,2013-02-08 23:02:00,
2013-02-08 15:04:00,51.9,42.1,29.84,WNW,284,7.0,14.0,69,0.00,,,0.21,VWS V14.01,2013-02-08 23:04:00,
2013-02-08 15:06:00,51.9,41.3,29.84,West,271,12.0,13.0,67,0.00,,,0.21,VWS V14.01,2013-02-08 23:06:00,
2013-02-08 15:07:00,51.9,41.3,29.84,NNW,333,6.0,13.0,67,0.00,,,0.21,VWS V14.01,2013-02-08 23:07:00,
2013-02-08 15:09:00,52.2,42.3,29.84,West,271,7.0,13.0,69,0.00,,,0.21,VWS V14.01,2013-02-08 23:09:00,
2013-02-08 15:12:00,52.3,42.1,29.85,West,274,5.0,8.0,68,0.00,,,0.21,VWS V14.01,2013-02-08 23:12:00,
2013-02-08 15:15:00,51.9,41.7,29.84,WSW,238,6.0,7.0,68,0.00,,,0.21,VWS V14.01,2013-02-08 23:15:00,
2013-02-08 15:17:00,51.8,41.6,29.85,SW,226,6.0,14.0,68,0.00,,,0.21,VWS V14.01,2013-02-08 23:17:00,
2013-02-08 15:21:00,52.1,43.0,29.84,West,269,4.0,4.0,71,0.00,,,0.21,VWS V14.01,2013-02-08 23:21:00,
2013-02-08 15:22:00,52.3,43.9,29.84,West,271,6.0,10.0,73,0.00,,,0.21,VWS V14.01,2013-02-08 23:22:00,
2013-02-08 15:27:00,52.2,43.1,29.84,WSW,243,8.0,14.0,71,0.00,,,0.21,VWS V14.01,2013-02-08 23:27:00,
2013-02-08 15:30:00,51.8,42.7,29.84,West,262,12.0,13.0,71,0.00,,,0.21,VWS V14.01,2013-02-08 23:30:00,
2013-02-08 15:32:00,51.6,42.9,29.84,WNW,287,6.0,15.0,72,0.00,,,0.21,VWS V14.01,2013-02-08 23:32:00,
2013-02-08 15:35:00,51.3,43.0,29.84,WNW,288,9.0,14.0,73,0.00,,,0.21,VWS V14.01,2013-02-08 23:35:00,
2013-02-08 15:37:00,50.9,41.8,29.84,West,280,13.0,15.0,71,0.00,,,0.21,VWS V14.01,2013-02-08 23:37:00,
2013-02-08 15:40:00,50.6,41.9,29.84,West,260,9.0,11.0,72,0.00,,,0.21,VWS V14.01,2013-02-08 23:40:00,
2013-02-08 15:42:00,50.5,41.8,29.85,WSW,239,9.0,11.0,72,0.00,,,0.21,VWS V14.01,2013-02-08 23:42:00,
2013-02-08 15:45:00,50.1,41.4,29.85,West,271,15.0,20.0,72,0.00,,,0.21,VWS V14.01,2013-02-08 23:45:00,
2013-02-08 15:47:00,49.7,40.3,29.85,WSW,249,12.0,16.0,70,0.00,,,0.21,VWS V14.01,2013-02-08 23:47:00,
2013-02-08 15:49:00,49.5,40.1,29.85,WSW,256,6.0,11.0,70,0.00,,,0.21,VWS V14.01,2013-02-08 23:49:00,
2013-02-08 15:50:00,49.4,40.0,29.85,West,271,12.0,14.0,70,0.00,,,0.21,VWS V14.01,2013-02-08 23:50:00,
2013-02-08 15:52:00,49.3,40.3,29.85,WSW,244,3.0,12.0,71,0.00,,,0.21,VWS V14.01,2013-02-08 23:52:00,
2013-02-08 15:54:00,49.3,40.3,29.84,NNW,332,2.0,9.0,71,0.00,,,0.21,VWS V14.01,2013-02-08 23:54:00,
2013-02-08 15:56:00,49.4,40.4,29.84,West,271,2.0,6.0,71,0.00,,,0.21,VWS V14.01,2013-02-08 23:56:00,
2013-02-08 15:58:00,49.6,40.2,29.84,WSW,258,4.0,5.0,70,0.00,,,0.21,VWS V14.01,2013-02-08 23:58:00,
2013-02-08 16:01:00,50.0,40.6,29.84,WSW,250,4.0,7.0,70,0.00,,,0.21,VWS V14.01,2013-02-09 00:01:00,
2013-02-08 16:02:00,50.0,40.2,29.84,WSW,243,7.0,8.0,69,0.00,,,0.21,VWS V14.01,2013-02-09 00:02:00,
2013-02-08 16:03:00,49.9,40.2,29.84,WSW,255,1.0,4.0,69,0.00,,,0.21,VWS V14.01,2013-02-09 00:03:00,
2013-02-08 16:05:00,50.0,40.2,29.84,WSW,255,4.0,4.0,69,0.00,,,0.21,VWS V14.01,2013-02-09 00:05:00,
2013-02-08 16:07:00,50.1,40.3,29.84,West,277,3.0,6.0,69,0.00,,,0.21,VWS V14.01,2013-02-09 00:07:00,
2013-02-08 16:08:00,50.3,40.9,29.84,WNW,295,2.0,7.0,70,0.00,,,0.21,VWS V14.01,2013-02-09 00:08:00,
2013-02-08 16:10:00,50.4,40.6,29.84,WSW,250,8.0,8.0,69,0.00,,,0.21,VWS V14.01,2013-02-09 00:10:00,
2013-02-08 16:11:00,50.5,40.7,29.84,WNW,284,3.0,8.0,69,0.00,,,0.21,VWS V14.01,2013-02-09 00:11:00,
2013-02-08 16:14:00,50.4,40.6,29.84,West,280,5.0,8.0,69,0.00,,,0.21,VWS V14.01,2013-02-09 00:14:00,
2013-02-08 16:16:00,50.3,40.5,29.84,WNW,283,3.0,3.0,69,0.00,,,0.21,VWS V14.01,2013-02-09 00:16:00,
2013-02-08 16:19:00,50.2,40.8,29.84,West,274,2.0,3.0,70,0.00,,,0.21,VWS V14.01,2013-02-09 00:19:00,
2013-02-08 16:20:00,50.2,40.8,29.84,NNW,345,1.0,2.0,70,0.00,,,0.21,VWS V14.01,2013-02-09 00:20:00,
2013-02-08 16:21:00,50.3,40.5,29.84,WSW,258,6.0,7.0,69,0.00,,,0.21,VWS V14.01,2013-02-09 00:21:00,
2013-02-08 16:25:00,50.1,39.6,29.84,West,262,8.0,8.0,67,0.00,,,0.21,VWS V14.01,2013-02-09 00:25:00,
2013-02-08 16:26:00,50.1,39.6,29.84,West,277,8.0,11.0,67,0.00,,,0.21,VWS V14.01,2013-02-09 00:26:00,
2013-02-08 16:28:00,50.1,39.2,29.84,West,266,6.0,9.0,66,0.00,,,0.21,VWS V14.01,2013-02-09 00:28:00,
2013-02-08 16:30:00,50.0,39.1,29.84,SW,224,9.0,10.0,66,0.00,,,0.21,VWS V14.01,2013-02-09 00:30:00,
2013-02-08 16:31:00,50.0,39.1,29.84,West,275,4.0,11.0,66,0.00,,,0.21,VWS V14.01,2013-02-09 00:31:00,
2013-02-08 16:34:00,49.8,39.3,29.84,WSW,246,6.0,8.0,67,0.00,,,0.21,VWS V14.01,2013-02-09 00:34:00,
2013-02-08 16:35:00,49.8,39.3,29.84,SW,224,3.0,9.0,67,0.00,,,0.21,VWS V14.01,2013-02-09 00:35:00,
2013-02-08 16:36:00,49.8,39.7,29.84,WNW,285,3.0,8.0,68,0.00,,,0.21,VWS V14.01,2013-02-09 00:36:00,
2013-02-08 16:41:00,49.7,40.0,29.84,WSW,255,9.0,10.0,69,0.00,,,0.21,VWS V14.01,2013-02-09 00:41:00,
2013-02-08 16:44:00,49.5,40.1,29.84,WNW,290,2.0,13.0,70,0.00,,,0.21,VWS V14.01,2013-02-09 00:44:00,
2013-02-08 16:47:00,49.5,40.5,29.84,NW,326,6.0,9.0,71,0.00,,,0.21,VWS V14.01,2013-02-09 00:47:00,
2013-02-08 16:48:00,49.5,40.5,29.84,NNW,345,3.0,7.0,71,0.00,,,0.21,VWS V14.01,2013-02-09 00:48:00,
2013-02-08 16:50:00,49.5,40.9,29.84,West,276,4.0,5.0,72,0.00,,,0.21,VWS V14.01,2013-02-09 00:50:00,
2013-02-08 16:52:00,49.4,40.4,29.84,West,260,5.0,7.0,71,0.00,,,0.21,VWS V14.01,2013-02-09 00:52:00,
2013-02-08 16:54:00,49.2,40.2,29.84,WSW,244,9.0,9.0,71,0.00,,,0.21,VWS V14.01,2013-02-09 00:54:00,
2013-02-08 16:56:00,49.1,40.5,29.84,West,262,8.0,10.0,72,0.00,,,0.21,VWS V14.01,2013-02-09 00:56:00,
2013-02-08 16:59:00,48.8,40.2,29.84,West,273,5.0,10.0,72,0.00,,,0.21,VWS V14.01,2013-02-09 00:59:00,
2013-02-08 17:02:00,48.6,40.3,29.84,West,278,7.0,8.0,73,0.00,,,0.21,VWS V14.01,2013-02-09 01:02:00,
2013-02-08 17:04:00,48.6,40.7,29.84,West,277,1.0,4.0,74,0.00,,,0.21,VWS V14.01,2013-02-09 01:04:00,
2013-02-08 17:07:00,48.4,40.2,29.84,West,262,5.0,6.0,73,0.00,,,0.21,VWS V14.01,2013-02-09 01:07:00,
2013-02-08 17:10:00,48.3,40.1,29.84,West,264,3.0,4.0,73,0.00,,,0.21,VWS V14.01,2013-02-09 01:10:00,
2013-02-08 17:13:00,48.3,40.1,29.84,West,276,3.0,9.0,73,0.00,,,0.21,VWS V14.01,2013-02-09 01:13:00,
2013-02-08 17:16:00,48.2,40.0,29.84,WSW,247,4.0,6.0,73,0.00,,,0.21,VWS V14.01,2013-02-09 01:16:00,
2013-02-08 17:17:00,48.2,40.0,29.84,WSW,244,6.0,6.0,73,0.00,,,0.21,VWS V14.01,2013-02-09 01:17:00,
2013-02-08 17:18:00,48.1,39.5,29.84,WSW,258,4.0,6.0,72,0.00,,,0.21,VWS V14.01,2013-02-09 01:18:00,
2013-02-08 17:19:00,48.1,39.5,29.84,West,280,3.0,6.0,72,0.00,,,0.21,VWS V14.01,2013-02-09 01:19:00,
2013-02-08 17:21:00,48.1,39.5,29.84,SW,235,4.0,4.0,72,0.00,,,0.21,VWS V14.01,2013-02-09 01:21:00,
2013-02-08 17:22:00,48.1,39.5,29.84,West,276,3.0,4.0,72,0.00,,,0.21,VWS V14.01,2013-02-09 01:22:00,
2013-02-08 17:24:00,48.0,39.4,29.84,WSW,245,3.0,4.0,72,0.00,,,0.21,VWS V14.01,2013-02-09 01:24:00,
2013-02-08 17:25:00,48.0,39.4,29.84,SW,226,3.0,3.0,72,0.00,,,0.21,VWS V14.01,2013-02-09 01:25:00,
2013-02-08 17:28:00,47.9,39.7,29.84,SW,222,2.0,3.0,73,0.00,,,0.21,VWS V14.01,2013-02-09 01:28:00,
2013-02-08 17:29:00,47.9,39.7,29.84,SW,225,2.0,3.0,73,0.00,,,0.21,VWS V14.01,2013-02-09 01:29:00,
2013-02-08 17:30:00,47.8,39.6,29.84,SW,235,4.0,4.0,73,0.00,,,0.21,VWS V14.01,2013-02-09 01:30:00,
2013-02-08 17:33:00,47.7,39.5,29.84,WSW,238,8.0,11.0,73,0.00,,,0.21,VWS V14.01,2013-02-09 01:33:00,
2013-02-08 17:34:00,47.6,39.4,29.84,SSW,207,6.0,7.0,73,0.00,,,0.21,VWS V14.01,2013-02-09 01:34:00,
2013-02-08 17:36:00,47.3,39.5,29.84,SSW,204,3.0,5.0,74,0.00,,,0.21,VWS V14.01,2013-02-09 01:36:00,
2013-02-08 17:39:00,46.8,39.3,29.84,South,179,2.0,4.0,75,0.00,,,0.21,VWS V14.01,2013-02-09 01:39:00,
2013-02-08 17:43:00,46.3,39.2,29.84,SW,224,2.0,4.0,76,0.00,,,0.21,VWS V14.01,2013-02-09 01:43:00,
2013-02-08 17:44:00,46.2,39.1,29.84,SSW,212,1.0,1.0,76,0.00,,,0.21,VWS V14.01,2013-02-09 01:44:00,
2013-02-08 17:46:00,46.1,39.3,29.84,SSW,205,1.0,2.0,77,0.00,,,0.21,VWS V14.01,2013-02-09 01:46:00,
2013-02-08 17:49:00,45.9,39.1,29.84,SW,217,0.0,1.0,77,0.00,,,0.21,VWS V14.01,2013-02-09 01:49:00,
2013-02-08 17:53:00,45.8,39.0,29.84,WSW,240,0.0,1.0,77,0.00,,,0.21,VWS V14.01,2013-02-09 01:53:00,
2013-02-08 17:54:00,45.7,38.9,29.84,WSW,240,0.0,1.0,77,0.00,,,0.21,VWS V14.01,2013-02-09 01:54:00,
2013-02-08 17:56:00,45.7,38.9,29.84,WSW,240,0.0,0.0,77,0.00,,,0.21,VWS V14.01,2013-02-09 01:56:00,
2013-02-08 17:58:00,45.7,38.9,29.84,WSW,240,0.0,0.0,77,0.00,,,0.21,VWS V14.01,2013-02-09 01:58:00,
2013-02-08 17:59:00,45.7,38.9,29.84,WSW,240,0.0,1.0,77,0.00,,,0.21,VWS V14.01,2013-02-09 01:59:00,
2013-02-08 18:03:00,45.6,39.2,29.84,WSW,240,0.0,1.0,78,0.00,,,0.21,VWS V14.01,2013-02-09 02:03:00,
2013-02-08 18:04:00,45.5,39.4,29.84,WSW,240,0.0,0.0,79,0.00,,,0.21,VWS V14.01,2013-02-09 02:04:00,
2013-02-08 18:09:00,45.5,39.4,29.84,WSW,240,0.0,0.0,79,0.00,,,0.21,VWS V14.01,2013-02-09 02:09:00,
2013-02-08 18:10:00,45.5,39.4,29.84,WSW,240,1.0,1.0,79,0.00,,,0.21,VWS V14.01,2013-02-09 02:10:00,
2013-02-08 18:11:00,45.5,39.7,29.84,NNW,333,2.0,3.0,80,0.00,,,0.21,VWS V14.01,2013-02-09 02:11:00,
2013-02-08 18:14:00,45.6,39.8,29.84,NW,323,0.0,0.0,80,0.00,,,0.21,VWS V14.01,2013-02-09 02:14:00,
2013-02-08 18:15:00,45.6,39.8,29.84,NW,323,0.0,0.0,80,0.00,,,0.21,VWS V14.01,2013-02-09 02:15:00,
2013-02-08 18:16:00,45.7,39.9,29.84,NW,323,0.0,0.0,80,0.00,,,0.21,VWS V14.01,2013-02-09 02:16:00,
2013-02-08 18:20:00,45.7,39.9,29.84,NW,308,0.0,0.0,80,0.01,,,0.22,VWS V14.01,2013-02-09 02:20:00,
2013-02-08 18:21:00,45.7,40.2,29.84,NW,308,0.0,0.0,81,0.01,,,0.22,VWS V14.01,2013-02-09 02:21:00,
2013-02-08 18:24:00,45.9,40.7,29.84,NNW,343,0.0,0.0,82,0.03,,,0.24,VWS V14.01,2013-02-09 02:24:00,
2013-02-08 18:26:00,45.8,40.6,29.84,NNW,333,0.0,1.0,82,0.03,,,0.24,VWS V14.01,2013-02-09 02:26:00,
2013-02-08 18:30:00,45.6,40.4,29.84,WSW,256,0.0,0.0,82,0.03,,,0.24,VWS V14.01,2013-02-09 02:30:00,
2013-02-08 18:31:00,45.5,40.3,29.84,WSW,256,0.0,0.0,82,0.03,,,0.24,VWS V14.01,2013-02-09 02:31:00,
2013-02-08 18:32:00,45.5,40.3,29.84,WSW,240,3.0,3.0,82,0.03,,,0.24,VWS V14.01,2013-02-09 02:32:00,
2013-02-08 18:34:00,45.6,40.4,29.84,West,266,0.0,0.0,82,0.03,,,0.24,VWS V14.01,2013-02-09 02:34:00,
2013-02-08 18:37:00,45.5,40.3,29.84,West,265,0.0,0.0,82,0.03,,,0.24,VWS V14.01,2013-02-09 02:37:00,
2013-02-08 18:38:00,45.5,40.3,29.84,West,266,0.0,0.0,82,0.03,,,0.24,VWS V14.01,2013-02-09 02:38:00,
2013-02-08 18:39:00,45.5,40.3,29.84,West,266,0.0,0.0,82,0.03,,,0.24,VWS V14.01,2013-02-09 02:39:00,
2013-02-08 18:42:00,45.4,40.2,29.84,West,266,0.0,0.0,82,0.03,,,0.24,VWS V14.01,2013-02-09 02:42:00,
2013-02-08 18:44:00,45.3,40.1,29.84,West,266,0.0,0.0,82,0.03,,,0.24,VWS V14.01,2013-02-09 02:44:00,
2013-02-08 18:48:00,45.3,40.8,29.84,SW,236,0.0,0.0,84,0.03,,,0.24,VWS V14.01,2013-02-09 02:48:00,
2013-02-08 18:49:00,45.3,41.1,29.84,SW,236,0.0,0.0,85,0.03,,,0.24,VWS V14.01,2013-02-09 02:49:00,
2013-02-08 18:50:00,45.3,41.1,29.84,SW,236,0.0,0.0,85,0.03,,,0.24,VWS V14.01,2013-02-09 02:50:00,
2013-02-08 18:53:00,45.3,41.1,29.84,NW,307,1.0,1.0,85,0.03,,,0.24,VWS V14.01,2013-02-09 02:53:00,
2013-02-08 18:54:00,45.3,41.4,29.84,NW,307,0.0,1.0,86,0.03,,,0.24,VWS V14.01,2013-02-09 02:54:00,
2013-02-08 18:56:00,45.3,41.4,29.84,WSW,239,1.0,3.0,86,0.04,,,0.25,VWS V14.01,2013-02-09 02:56:00,
2013-02-08 18:58:00,45.3,41.4,29.84,WSW,249,1.0,2.0,86,0.04,,,0.25,VWS V14.01,2013-02-09 02:58:00,
2013-02-08 19:00:00,45.3,41.4,29.84,WSW,249,0.0,1.0,86,0.04,,,0.25,VWS V14.01,2013-02-09 03:00:00,
2013-02-08 19:02:00,45.4,41.5,29.84,WSW,249,0.0,0.0,86,0.04,,,0.25,VWS V14.01,2013-02-09 03:02:00,
2013-02-08 19:03:00,45.4,41.5,29.84,WSW,249,0.0,0.0,86,0.04,,,0.25,VWS V14.01,2013-02-09 03:03:00,
2013-02-08 19:08:00,45.6,42.0,29.84,WSW,248,1.0,1.0,87,0.04,,,0.25,VWS V14.01,2013-02-09 03:08:00,
2013-02-08 19:09:00,45.6,42.0,29.84,WSW,248,1.0,1.0,87,0.04,,,0.25,VWS V14.01,2013-02-09 03:09:00,
2013-02-08 19:14:00,45.6,42.0,29.84,West,260,0.0,0.0,87,0.04,,,0.25,VWS V14.01,2013-02-09 03:14:00,
2013-02-08 19:16:00,45.7,42.4,29.84,West,274,2.0,2.0,88,0.04,,,0.25,VWS V14.01,2013-02-09 03:16:00,
2013-02-08 19:18:00,45.7,42.4,29.84,NW,311,3.0,4.0,88,0.04,,,0.25,VWS V14.01,2013-02-09 03:18:00,
2013-02-08 19:19:00,45.7,42.4,29.84,WNW,288,2.0,6.0,88,0.04,,,0.25,VWS V14.01,2013-02-09 03:19:00,
2013-02-08 19:21:00,45.7,42.1,29.84,West,271,1.0,2.0,87,0.04,,,0.25,VWS V14.01,2013-02-09 03:21:00,
2013-02-08 19:23:00,45.7,42.4,29.85,WNW,292,3.0,4.0,88,0.03,,,0.25,VWS V14.01,2013-02-09 03:23:00,
2013-02-08 19:24:00,45.7,42.4,29.85,West,280,1.0,3.0,88,0.02,,,0.25,VWS V14.01,2013-02-09 03:24:00,
2013-02-08 19:27:00,45.6,42.0,29.85,WNW,293,4.0,10.0,87,0.01,,,0.25,VWS V14.01,2013-02-09 03:27:00,
2013-02-08 19:29:00,45.6,42.0,29.85,West,264,5.0,5.0,87,0.01,,,0.25,VWS V14.01,2013-02-09 03:29:00,
2013-02-08 19:31:00,45.5,41.9,29.85,WSW,253,5.0,5.0,87,0.01,,,0.25,VWS V14.01,2013-02-09 03:31:00,
2013-02-08 19:32:00,45.5,41.9,29.85,West,276,4.0,10.0,87,0.01,,,0.25,VWS V14.01,2013-02-09 03:32:00,
2013-02-08 19:37:00,45.3,41.4,29.85,WSW,250,2.0,4.0,86,0.01,,,0.25,VWS V14.01,2013-02-09 03:37:00,
2013-02-08 19:38:00,45.3,41.4,29.85,WNW,299,3.0,4.0,86,0.01,,,0.25,VWS V14.01,2013-02-09 03:38:00,
2013-02-08 19:43:00,45.1,41.2,29.85,WSW,246,4.0,4.0,86,0.02,,,0.26,VWS V14.01,2013-02-09 03:43:00,
2013-02-08 19:44:00,45.0,41.1,29.85,WSW,250,2.0,4.0,86,0.02,,,0.26,VWS V14.01,2013-02-09 03:44:00,
2013-02-08 19:49:00,44.6,40.4,29.85,West,269,3.0,3.0,85,0.02,,,0.26,VWS V14.01,2013-02-09 03:49:00,
2013-02-08 19:50:00,44.5,40.3,29.85,WSW,246,1.0,3.0,85,0.02,,,0.26,VWS V14.01,2013-02-09 03:50:00,
2013-02-08 19:52:00,44.4,40.2,29.85,WSW,242,1.0,1.0,85,0.02,,,0.26,VWS V14.01,2013-02-09 03:52:00,
2013-02-08 19:54:00,44.3,40.1,29.85,WSW,242,0.0,0.0,85,0.02,,,0.26,VWS V14.01,2013-02-09 03:54:00,
2013-02-08 19:56:00,44.3,40.1,29.85,WSW,242,0.0,0.0,85,0.01,,,0.26,VWS V14.01,2013-02-09 03:56:00,
2013-02-08 19:58:00,44.2,40.0,29.85,SSW,205,0.0,1.0,85,0.01,,,0.26,VWS V14.01,2013-02-09 03:58:00,
2013-02-08 19:59:00,44.2,40.0,29.85,SSW,205,0.0,1.0,85,0.01,,,0.26,VWS V14.01,2013-02-09 03:59:00,
2013-02-08 20:03:00,44.0,40.1,29.84,SSW,205,0.0,0.0,86,0.01,,,0.26,VWS V14.01,2013-02-09 04:03:00,
2013-02-08 20:04:00,44.1,40.2,29.84,SE,136,1.0,1.0,86,0.01,,,0.26,VWS V14.01,2013-02-09 04:04:00,
2013-02-08 20:08:00,43.9,40.3,29.84,ESE,103,1.0,1.0,87,0.01,,,0.26,VWS V14.01,2013-02-09 04:08:00,
2013-02-08 20:09:00,43.9,40.3,29.84,ESE,103,0.0,1.0,87,0.01,,,0.26,VWS V14.01,2013-02-09 04:09:00,
2013-02-08 20:13:00,43.9,40.6,29.84,East,99,2.0,2.0,88,0.01,,,0.26,VWS V14.01,2013-02-09 04:13:00,
2013-02-08 20:14:00,43.9,40.6,29.84,ESE,105,0.0,2.0,88,0.01,,,0.26,VWS V14.01,2013-02-09 04:14:00,
2013-02-08 20:15:00,43.8,40.5,29.84,ESE,103,0.0,2.0,88,0.01,,,0.26,VWS V14.01,2013-02-09 04:15:00,
2013-02-08 20:18:00,43.7,40.4,29.84,ESE,109,1.0,1.0,88,0.01,,,0.26,VWS V14.01,2013-02-09 04:18:00,
2013-02-08 20:20:00,43.7,40.7,29.85,East,81,1.0,2.0,89,0.01,,,0.26,VWS V14.01,2013-02-09 04:20:00,
2013-02-08 20:22:00,43.7,40.7,29.85,ESE,113,1.0,1.0,89,0.01,,,0.26,VWS V14.01,2013-02-09 04:22:00,
2013-02-08 20:23:00,43.7,40.7,29.85,ESE,113,0.0,1.0,89,0.01,,,0.26,VWS V14.01,2013-02-09 04:23:00,
2013-02-08 20:25:00,43.7,40.7,29.85,East,96,1.0,1.0,89,0.01,,,0.26,VWS V14.01,2013-02-09 04:25:00,
2013-02-08 20:26:00,43.7,40.7,29.85,East,100,1.0,2.0,89,0.01,,,0.26,VWS V14.01,2013-02-09 04:26:00,
2013-02-08 20:28:00,43.6,40.6,29.85,ESE,103,1.0,2.0,89,0.01,,,0.26,VWS V14.01,2013-02-09 04:28:00,
2013-02-08 20:29:00,43.6,40.9,29.85,ESE,114,1.0,1.0,90,0.01,,,0.26,VWS V14.01,2013-02-09 04:29:00,
2013-02-08 20:32:00,43.6,40.9,29.85,SE,139,1.0,1.0,90,0.01,,,0.26,VWS V14.01,2013-02-09 04:32:00,
2013-02-08 20:33:00,43.6,40.9,29.85,SE,142,1.0,1.0,90,0.01,,,0.26,VWS V14.01,2013-02-09 04:33:00,
2013-02-08 20:34:00,43.5,40.8,29.85,SE,136,1.0,1.0,90,0.01,,,0.26,VWS V14.01,2013-02-09 04:34:00,
2013-02-08 20:38:00,43.4,40.7,29.85,ESE,113,1.0,1.0,90,0.01,,,0.26,VWS V14.01,2013-02-09 04:38:00,
2013-02-08 20:39:00,43.4,40.7,29.85,ESE,115,1.0,1.0,90,0.01,,,0.26,VWS V14.01,2013-02-09 04:39:00,
2013-02-08 20:42:00,43.3,40.6,29.85,SE,130,1.0,1.0,90,0.00,,,0.26,VWS V14.01,2013-02-09 04:42:00,
2013-02-08 20:44:00,43.3,40.6,29.85,SE,134,1.0,1.0,90,0.00,,,0.26,VWS V14.01,2013-02-09 04:44:00,
2013-02-08 20:45:00,43.2,40.5,29.85,SE,134,0.0,1.0,90,0.00,,,0.26,VWS V14.01,2013-02-09 04:45:00,
2013-02-08 20:48:00,43.3,40.8,29.85,SE,136,1.0,1.0,91,0.00,,,0.26,VWS V14.01,2013-02-09 04:48:00,
2013-02-08 20:49:00,43.3,40.8,29.85,ESE,119,2.0,2.0,91,0.00,,,0.26,VWS V14.01,2013-02-09 04:49:00,
2013-02-08 20:50:00,43.3,40.8,29.85,ESE,111,1.0,2.0,91,0.00,,,0.26,VWS V14.01,2013-02-09 04:50:00,
2013-02-08 20:51:00,43.3,40.8,29.85,East,98,2.0,2.0,91,0.00,,,0.26,VWS V14.01,2013-02-09 04:51:00,
2013-02-08 20:53:00,43.3,40.8,29.85,East,92,2.0,2.0,91,0.00,,,0.26,VWS V14.01,2013-02-09 04:53:00,
2013-02-08 20:54:00,43.3,40.8,29.85,East,83,2.0,2.0,91,0.00,,,0.26,VWS V14.01,2013-02-09 04:54:00,
2013-02-08 20:59:00,43.3,40.8,29.85,ESE,113,1.0,2.0,91,0.00,,,0.26,VWS V14.01,2013-02-09 04:59:00,
2013-02-08 21:00:00,43.3,40.8,29.85,ESE,113,1.0,1.0,91,0.00,,,0.26,VWS V14.01,2013-02-09 05:00:00,
2013-02-08 21:03:00,43.3,40.8,29.85,ESE,121,1.0,2.0,91,0.00,,,0.26,VWS V14.01,2013-02-09 05:03:00,
2013-02-08 21:05:00,43.2,40.8,29.85,ESE,108,1.0,1.0,91,0.00,,,0.26,VWS V14.01,2013-02-09 05:05:00,
2013-02-08 21:08:00,43.2,40.8,29.85,ESE,110,2.0,2.0,91,0.00,,,0.26,VWS V14.01,2013-02-09 05:08:00,
2013-02-08 21:10:00,43.1,40.7,29.85,ESE,122,1.0,2.0,91,0.00,,,0.26,VWS V14.01,2013-02-09 05:10:00,
2013-02-08 21:11:00,43.1,40.7,29.85,ESE,120,2.0,2.0,91,0.00,,,0.26,VWS V14.01,2013-02-09 05:11:00,
2013-02-08 21:15:00,43.1,40.7,29.85,East,94,1.0,2.0,91,0.00,,,0.26,VWS V14.01,2013-02-09 05:15:00,
2013-02-08 21:16:00,43.1,40.7,29.85,ESE,118,1.0,1.0,91,0.00,,,0.26,VWS V14.01,2013-02-09 05:16:00,
2013-02-08 21:20:00,43.0,40.6,29.85,ESE,111,1.0,1.0,91,0.00,,,0.26,VWS V14.01,2013-02-09 05:20:00,
2013-02-08 21:21:00,43.0,40.6,29.85,East,89,1.0,1.0,91,0.00,,,0.26,VWS V14.01,2013-02-09 05:21:00,
2013-02-08 21:26:00,42.9,40.5,29.85,East,100,0.0,1.0,91,0.00,,,0.26,VWS V14.01,2013-02-09 05:26:00,
2013-02-08 21:28:00,42.9,40.5,29.85,ESE,102,2.0,2.0,91,0.00,,,0.26,VWS V14.01,2013-02-09 05:28:00,
2013-02-08 21:31:00,42.9,40.5,29.85,East,94,1.0,2.0,91,0.00,,,0.26,VWS V14.01,2013-02-09 05:31:00,
2013-02-08 21:33:00,42.9,40.5,29.85,ESE,108,2.0,3.0,91,0.00,,,0.26,VWS V14.01,2013-02-09 05:33:00,
2013-02-08 21:34:00,42.9,40.5,29.85,ESE,122,2.0,2.0,91,0.00,,,0.26,VWS V14.01,2013-02-09 05:34:00,
2013-02-08 21:36:00,42.8,40.4,29.85,East,83,1.0,2.0,91,0.00,,,0.26,VWS V14.01,2013-02-09 05:36:00,
2013-02-08 21:37:00,42.8,40.4,29.85,ESE,105,2.0,2.0,91,0.00,,,0.26,VWS V14.01,2013-02-09 05:37:00,
2013-02-08 21:39:00,42.8,40.4,29.85,East,101,1.0,2.0,91,0.00,,,0.26,VWS V14.01,2013-02-09 05:39:00,
2013-02-08 21:42:00,42.8,40.4,29.85,ESE,111,1.0,1.0,91,0.00,,,0.26,VWS V14.01,2013-02-09 05:42:00,
2013-02-08 21:44:00,42.9,40.5,29.85,East,84,1.0,2.0,91,0.00,,,0.26,VWS V14.01,2013-02-09 05:44:00,
2013-02-08 21:47:00,42.8,40.4,29.85,ESE,108,1.0,1.0,91,0.00,,,0.26,VWS V14.01,2013-02-09 05:47:00,
2013-02-08 21:50:00,42.8,40.4,29.85,SE,129,1.0,2.0,91,0.00,,,0.26,VWS V14.01,2013-02-09 05:50:00,
2013-02-08 21:52:00,42.7,40.0,29.85,ESE,121,1.0,2.0,90,0.00,,,0.26,VWS V14.01,2013-02-09 05:52:00,
2013-02-08 21:53:00,42.7,40.0,29.85,ESE,113,1.0,2.0,90,0.00,,,0.26,VWS V14.01,2013-02-09 05:53:00,
2013-02-08 21:57:00,42.7,40.3,29.85,ESE,107,1.0,2.0,91,0.00,,,0.26,VWS V14.01,2013-02-09 05:57:00,
2013-02-08 21:58:00,42.7,40.3,29.85,ESE,117,1.0,1.0,91,0.00,,,0.26,VWS V14.01,2013-02-09 05:58:00,
2013-02-08 22:01:00,42.6,40.2,29.85,SE,136,0.0,2.0,91,0.00,,,0.26,VWS V14.01,2013-02-09 06:01:00,
2013-02-08 22:02:00,42.6,40.2,29.85,ESE,120,1.0,2.0,91,0.00,,,0.26,VWS V14.01,2013-02-09 06:02:00,
2013-02-08 22:05:00,42.6,40.2,29.85,SE,127,2.0,2.0,91,0.00,,,0.26,VWS V14.01,2013-02-09 06:05:00,
2013-02-08 22:06:00,42.6,40.2,29.85,SE,141,2.0,2.0,91,0.00,,,0.26,VWS V14.01,2013-02-09 06:06:00,
2013-02-08 22:07:00,42.5,40.1,29.85,SE,138,1.0,2.0,91,0.00,,,0.26,VWS V14.01,2013-02-09 06:07:00,
2013-02-08 22:10:00,42.5,40.1,29.85,SE,129,1.0,2.0,91,0.00,,,0.26,VWS V14.01,2013-02-09 06:10:00,
2013-02-08 22:11:00,42.5,40.1,29.85,SE,131,1.0,1.0,91,0.00,,,0.26,VWS V14.01,2013-02-09 06:11:00,
2013-02-08 22:12:00,42.5,40.1,29.86,SE,132,1.0,1.0,91,0.00,,,0.26,VWS V14.01,2013-02-09 06:12:00,
2013-02-08 22:15:00,42.5,40.1,29.85,ESE,121,0.0,1.0,91,0.00,,,0.26,VWS V14.01,2013-02-09 06:15:00,
2013-02-08 22:18:00,42.5,40.1,29.86,SE,131,1.0,1.0,91,0.00,,,0.26,VWS V14.01,2013-02-09 06:18:00,
2013-02-08 22:20:00,42.5,40.1,29.85,SE,132,1.0,2.0,91,0.00,,,0.26,VWS V14.01,2013-02-09 06:20:00,
2013-02-08 22:21:00,42.5,40.1,29.86,SSE,148,1.0,2.0,91,0.00,,,0.26,VWS V14.01,2013-02-09 06:21:00,
2013-02-08 22:23:00,42.4,40.0,29.86,SE,136,2.0,2.0,91,0.00,,,0.26,VWS V14.01,2013-02-09 06:23:00,
2013-02-08 22:25:00,42.4,40.0,29.86,ESE,115,1.0,2.0,91,0.00,,,0.26,VWS V14.01,2013-02-09 06:25:00,
2013-02-08 22:26:00,42.4,40.0,29.86,East,93,2.0,3.0,91,0.00,,,0.26,VWS V14.01,2013-02-09 06:26:00,
2013-02-08 22:27:00,42.4,40.0,29.85,East,91,2.0,3.0,91,0.00,,,0.26,VWS V14.01,2013-02-09 06:27:00,
2013-02-08 22:31:00,42.4,40.0,29.86,ESE,109,1.0,1.0,91,0.00,,,0.26,VWS V14.01,2013-02-09 06:31:00,
2013-02-08 22:32:00,42.4,40.0,29.86,ESE,110,0.0,1.0,91,0.00,,,0.26,VWS V14.01,2013-02-09 06:32:00,
2013-02-08 22:33:00,42.5,40.1,29.86,ESE,110,1.0,1.0,91,0.00,,,0.26,VWS V14.01,2013-02-09 06:33:00,
2013-02-08 22:36:00,42.5,40.1,29.86,East,86,1.0,1.0,91,0.00,,,0.26,VWS V14.01,2013-02-09 06:36:00,
2013-02-08 22:37:00,42.5,39.8,29.86,East,96,1.0,2.0,90,0.00,,,0.26,VWS V14.01,2013-02-09 06:37:00,
2013-02-08 22:38:00,42.5,40.1,29.86,East,94,1.0,1.0,91,0.00,,,0.26,VWS V14.01,2013-02-09 06:38:00,
2013-02-08 22:41:00,42.5,39.8,29.86,East,94,1.0,2.0,90,0.00,,,0.26,VWS V14.01,2013-02-09 06:41:00,
2013-02-08 22:42:00,42.5,39.8,29.86,East,94,0.0,1.0,90,0.00,,,0.26,VWS V14.01,2013-02-09 06:42:00,
2013-02-08 22:44:00,42.6,39.9,29.86,SE,128,0.0,0.0,90,0.00,,,0.26,VWS V14.01,2013-02-09 06:44:00,
2013-02-08 22:45:00,42.6,39.9,29.86,SE,128,0.0,0.0,90,0.00,,,0.26,VWS V14.01,2013-02-09 06:45:00,
2013-02-08 22:47:00,42.6,39.9,29.86,SE,128,0.0,0.0,90,0.00,,,0.26,VWS V14.01,2013-02-09 06:47:00,
2013-02-08 22:48:00,42.6,39.9,29.86,SE,128,0.0,0.0,90,0.00,,,0.26,VWS V14.01,2013-02-09 06:48:00,
2013-02-08 22:49:00,42.7,40.0,29.86,SE,129,0.0,0.0,90,0.00,,,0.26,VWS V14.01,2013-02-09 06:49:00,
2013-02-08 22:51:00,42.6,39.9,29.86,SE,128,0.0,0.0,90,0.00,,,0.26,VWS V14.01,2013-02-09 06:51:00,
2013-02-08 22:52:00,42.6,39.9,29.86,SE,128,0.0,0.0,90,0.00,,,0.26,VWS V14.01,2013-02-09 06:52:00,
2013-02-08 22:55:00,42.6,39.9,29.86,SE,128,0.0,0.0,90,0.00,,,0.26,VWS V14.01,2013-02-09 06:55:00,
2013-02-08 22:56:00,42.5,39.8,29.86,SE,129,0.0,0.0,90,0.00,,,0.26,VWS V14.01,2013-02-09 06:56:00,
2013-02-08 23:00:00,42.6,39.9,29.86,SE,128,0.0,0.0,90,0.00,,,0.26,VWS V14.01,2013-02-09 07:00:00,
2013-02-08 23:01:00,42.5,39.8,29.86,SE,128,0.0,0.0,90,0.00,,,0.26,VWS V14.01,2013-02-09 07:01:00,
2013-02-08 23:02:00,42.6,39.9,29.86,SE,129,0.0,0.0,90,0.00,,,0.26,VWS V14.01,2013-02-09 07:02:00,
2013-02-08 23:05:00,42.5,39.8,29.86,SE,128,0.0,0.0,90,0.00,,,0.26,VWS V14.01,2013-02-09 07:05:00,
2013-02-08 23:06:00,42.5,39.8,29.86,SE,128,0.0,0.0,90,0.00,,,0.26,VWS V14.01,2013-02-09 07:06:00,
2013-02-08 23:08:00,42.4,39.7,29.86,SE,128,0.0,0.0,90,0.00,,,0.26,VWS V14.01,2013-02-09 07:08:00,
2013-02-08 23:10:00,42.4,39.7,29.86,SE,128,0.0,0.0,90,0.00,,,0.26,VWS V14.01,2013-02-09 07:10:00,
2013-02-08 23:12:00,42.3,39.6,29.86,SE,128,0.0,0.0,90,0.00,,,0.26,VWS V14.01,2013-02-09 07:12:00,
2013-02-08 23:13:00,42.2,39.5,29.86,SE,129,0.0,0.0,90,0.00,,,0.26,VWS V14.01,2013-02-09 07:13:00,
2013-02-08 23:14:00,42.2,39.5,29.86,SE,128,0.0,0.0,90,0.00,,,0.26,VWS V14.01,2013-02-09 07:14:00,
2013-02-08 23:15:00,42.1,39.4,29.86,SE,128,0.0,0.0,90,0.00,,,0.26,VWS V14.01,2013-02-09 07:15:00,
2013-02-08 23:17:00,42.0,39.3,29.87,SE,128,0.0,0.0,90,0.00,,,0.26,VWS V14.01,2013-02-09 07:17:00,
2013-02-08 23:18:00,41.9,39.2,29.86,SE,129,0.0,0.0,90,0.00,,,0.26,VWS V14.01,2013-02-09 07:18:00,
2013-02-08 23:19:00,41.9,39.5,29.86,SE,129,0.0,0.0,91,0.00,,,0.26,VWS V14.01,2013-02-09 07:19:00,
2013-02-08 23:20:00,41.9,39.5,29.86,SE,128,0.0,0.0,91,0.00,,,0.26,VWS V14.01,2013-02-09 07:20:00,
2013-02-08 23:24:00,41.9,39.5,29.87,SE,129,0.0,0.0,91,0.00,,,0.26,VWS V14.01,2013-02-09 07:24:00,
2013-02-08 23:25:00,41.9,39.5,29.86,SE,129,0.0,0.0,91,0.00,,,0.26,VWS V14.01,2013-02-09 07:25:00,
2013-02-08 23:26:00,41.8,39.4,29.87,SE,128,0.0,0.0,91,0.00,,,0.26,VWS V14.01,2013-02-09 07:26:00,
2013-02-08 23:27:00,41.8,39.4,29.87,SE,128,0.0,0.0,91,0.00,,,0.26,VWS V14.01,2013-02-09 07:27:00,
2013-02-08 23:31:00,41.7,39.3,29.87,SE,128,0.0,0.0,91,0.00,,,0.26,VWS V14.01,2013-02-09 07:31:00,
2013-02-08 23:32:00,41.6,39.2,29.87,SE,128,0.0,0.0,91,0.00,,,0.26,VWS V14.01,2013-02-09 07:32:00,
2013-02-08 23:36:00,41.6,39.2,29.87,SE,129,0.0,0.0,91,0.00,,,0.26,VWS V14.01,2013-02-09 07:36:00,
2013-02-08 23:37:00,41.5,39.1,29.87,SE,128,0.0,0.0,91,0.00,,,0.26,VWS V14.01,2013-02-09 07:37:00,
2013-02-08 23:38:00,41.5,39.1,29.87,SE,129,0.0,0.0,91,0.00,,,0.26,VWS V14.01,2013-02-09 07:38:00,
2013-02-08 23:42:00,41.4,39.0,29.87,SE,128,0.0,0.0,91,0.00,,,0.26,VWS V14.01,2013-02-09 07:42:00,
2013-02-08 23:43:00,41.3,38.9,29.87,SE,128,0.0,0.0,91,0.00,,,0.26,VWS V14.01,2013-02-09 07:43:00,
2013-02-08 23:44:00,41.3,38.9,29.87,SE,129,0.0,0.0,91,0.00,,,0.26,VWS V14.01,2013-02-09 07:44:00,
2013-02-08 23:48:00,41.3,39.2,29.87,SE,127,0.0,0.0,92,0.00,,,0.26,VWS V14.01,2013-02-09 07:48:00,
2013-02-08 23:51:00,41.3,39.2,29.87,SE,128,0.0,0.0,92,0.00,,,0.26,VWS V14.01,2013-02-09 07:51:00,
2013-02-08 23:52:00,41.3,39.2,29.87,SE,128,0.0,0.0,92,0.00,,,0.26,VWS V14.01,2013-02-09 07:52:00,
2013-02-08 23:54:00,41.2,39.1,29.87,SE,128,0.0,0.0,92,0.00,,,0.26,VWS V14.01,2013-02-09 07:54:00,
2013-02-08 23:55:00,41.2,39.1,29.87,SE,128,0.0,0.0,92,0.00,,,0.26,VWS V14.01,2013-02-09 07:55:00,
2013-02-08 23:57:00,41.2,39.1,29.87,SE,128,0.0,0.0,92,0.00,,,0.26,VWS V14.01,2013-02-09 07:57:00,
2013-02-08 23:58:00,41.2,39.1,29.87,SE,128,0.0,0.0,92,0.00,,,0.26,VWS V14.01,2013-02-09 07:58:00,